GEFSSGP_500_meanwind_036.txt.gz
Wind_Speed
11 10 11 10 9 9 7 7 8 9 9 8 7 6 6 5 5 6 6 7 8 9 10 11 11 11 11 12 13 14 15 16 17 17 17 17 16 15 14 13 12 11 10 9 7 5 4 3 3
10 10 10 10 10 8 7 7 7 8 8 7 6 6 5 5 5 5 6 6 7 8 8 9 10 9 9 9 10 11 12 13 14 15 16 16 16 15 14 14 13 12 11 10 8 7 5 4 4
8 9 10 10 9 7 6 6 7 6 7 6 6 5 4 4 4 4 5 5 6 7 7 8 8 8 8 8 8 8 9 10 11 12 13 14 14 14 14 14 14 13 12 11 10 9 7 5 5
6 7 8 9 7 6 5 5 5 5 6 6 5 4 4 3 3 4 4 5 5 6 7 7 7 7 7 7 6 6 6 6 7 8 9 10 11 12 12 13 13 13 13 13 12 11 9 8 6
4 5 5 6 5 4 3 3 3 4 4 5 5 4 3 3 2 3 4 5 5 6 6 7 7 7 7 6 6 5 4 3 4 4 5 6 7 8 8 9 11 11 12 13 13 12 11 10 8
2 2 2 2 1 1 1 2 2 2 3 3 4 4 4 3 1 1 4 6 7 7 7 7 8 8 8 8 7 6 5 4 4 3 3 3 3 4 5 6 7 8 9 10 11 11 12 11 10
2 1 2 2 3 2 2 2 3 3 3 4 4 5 4 4 3 2 3 6 8 9 9 9 9 9 10 10 10 9 8 7 6 5 4 3 3 3 3 3 3 4 5 6 7 8 9 10 10
5 5 5 6 5 5 5 5 5 6 6 6 7 7 6 6 5 5 5 6 8 10 11 12 12 12 12 12 12 11 11 10 9 8 7 6 5 4 4 3 3 2 2 2 3 4 6 7 7
7 7 8 9 9 8 8 8 9 9 9 9 9 10 10 9 9 8 8 8 9 10 12 13 14 15 15 15 15 14 13 13 12 12 11 10 8 7 7 6 5 4 4 3 1 0 1 2 3
9 10 11 11 11 11 11 11 12 12 13 13 13 12 13 13 13 13 12 12 12 13 13 14 15 17 18 19 18 18 17 16 16 15 14 13 12 11 10 9 8 8 7 6 5 4 3 2 1
11 12 13 14 14 14 14 14 15 16 16 17 17 16 16 16 16 16 17 17 17 17 17 18 18 19 19 20 21 21 20 20 19 18 17 16 15 14 13 12 11 11 10 9 8 8 7 6 6
14 15 16 18 18 19 19 19 19 20 20 20 20 19 19 19 19 19 19 20 21 21 22 22 23 23 23 23 23 23 23 23 22 22 21 20 18 17 16 15 14 13 12 12 11 10 10 10 9
17 19 20 21 22 23 24 24 24 24 24 24 24 23 22 22 23 23 23 24 24 25 25 26 26 27 27 27 26 26 26 26 25 25 24 23 21 20 19 17 16 15 14 14 14 13 13 12 12
21 22 23 24 25 26 27 27 28 28 28 28 28 28 28 28 28 29 29 29 29 29 30 30 31 31 31 31 31 31 32 30 29 28 27 26 25 24 22 21 19 18 16 16 16 15 15 14 14
24 25 26 27 27 28 29 28 29 29 29 30 31 31 31 32 33 34 35 35 35 35 35 36 36 36 36 35 35 35 35 35 34 33 32 31 29 28 26 24 22 20 19 18 18 17 17 17 16
25 27 28 28 28 29 29 29 28 29 29 30 31 32 33 34 35 37 38 40 41 42 42 42 42 42 41 41 40 39 37 37 36 36 35 34 33 32 31 29 26 24 22 21 21 20 19 19 18
26 27 29 29 28 28 29 28 27 28 29 29 30 31 32 34 36 37 40 41 43 45 47 47 48 48 47 46 45 45 44 42 40 39 38 37 36 34 33 31 28 26 24 23 22 22 22 21 21
26 27 28 28 27 27 28 28 28 29 29 29 30 31 32 34 35 37 39 41 43 45 48 50 52 53 52 51 51 50 49 47 44 42 41 39 38 37 35 34 31 28 26 25 24 24 24 24 24
25 26 27 27 27 27 27 28 28 29 29 29 30 31 32 34 35 37 38 41 43 44 46 49 52 53 55 54 54 54 53 52 50 46 43 41 39 36 35 32 31 29 27 26 25 25 25 24 25
25 26 27 27 26 27 27 27 28 28 29 29 30 31 32 33 36 37 38 39 41 43 46 48 50 52 53 54 55 55 55 54 53 51 48 45 42 39 35 33 31 29 29 29 27 26 25 25 24
25 26 26 26 26 26 26 26 26 26 27 28 28 29 31 32 33 34 36 38 39 40 42 45 48 50 51 52 53 55 55 54 54 53 52 50 46 41 39 35 33 31 31 30 29 28 26 25 25
22 22 22 22 23 23 23 25 23 24 25 25 26 27 28 29 30 30 31 32 33 35 38 40 42 45 47 48 49 50 51 51 52 51 51 50 48 44 40 38 35 34 32 31 31 30 28 27 27
17 18 18 19 20 20 20 21 21 21 22 23 24 24 26 27 27 27 27 28 29 30 31 32 33 35 36 38 40 42 44 46 47 47 47 47 45 43 41 38 37 36 35 34 33 31 30 28 27
16 17 17 17 18 18 17 17 17 17 18 19 20 21 22 23 23 23 22 22 23 22 22 22 23 23 24 27 29 33 36 38 41 42 43 43 42 41 40 38 37 37 36 35 34 33 31 30 29
15 16 17 16 15 14 14 14 15 15 15 15 16 16 18 19 20 20 18 18 18 17 17 16 15 14 15 17 21 24 27 30 34 36 38 39 39 39 38 38 38 37 36 35 34 33 33 32 30
15 15 15 15 15 14 13 12 13 13 13 13 13 14 16 17 18 18 16 16 16 15 15 14 12 11 10 11 11 14 18 21 24 28 31 34 35 36 36 37 37 36 36 35 35 34 34 33 32
15 16 15 14 13 13 12 12 12 12 12 13 14 14 16 17 17 16 16 16 14 14 14 14 12 11 8 6 6 8 11 14 18 22 25 28 30 31 32 33 34 34 34 34 34 34 35 35 34
16 16 16 15 14 13 12 11 12 13 13 14 14 14 15 17 18 18 18 18 17 16 16 16 15 13 12 8 4 1 4 7 11 15 19 22 25 27 29 30 31 32 33 33 34 34 35 36 35
17 17 16 16 15 13 12 12 12 13 13 13 13 14 16 16 18 19 20 20 20 20 20 19 18 16 14 13 9 6 2 2 5 8 12 16 19 21 24 26 27 29 30 31 33 34 35 36 36
17 17 17 16 15 14 13 12 12 13 13 13 14 15 16 17 19 20 21 22 23 23 22 22 21 19 17 15 13 10 8 4 1 2 6 9 13 16 18 21 23 25 27 29 31 32 34 35 35

GEFSSGP_500_meanwind_042.txt.gz
Wind_Speed
8 8 8 6 4 6 6 5 5 3 2 2 2 3 2 1 1 2 2 3 4 5 5 6 7 7 7 8 8 9 10 11 11 10 10 9 9 8 7 7 6 6 5 4 4 3 3 4 6
8 7 7 5 7 8 6 5 4 4 3 3 3 4 4 3 2 3 3 3 4 4 5 5 5 5 5 5 6 6 7 8 9 9 9 9 9 8 7 7 7 7 6 5 4 3 3 3 3
6 6 6 6 7 7 6 6 5 5 4 4 4 5 4 4 4 3 4 4 4 5 5 5 5 4 4 3 3 4 4 5 6 7 7 8 8 8 8 7 7 8 7 6 5 5 5 5 4
5 5 5 7 6 6 6 5 5 6 5 5 5 5 5 5 4 5 5 6 6 6 6 6 7 6 5 4 3 2 1 1 2 3 3 4 5 5 6 7 7 7 8 7 7 6 6 6 5
4 4 5 6 6 6 6 6 6 6 6 7 6 6 6 5 5 5 7 7 7 7 8 8 8 8 8 7 7 6 4 4 3 2 1 1 1 2 3 4 5 6 7 7 7 7 6 6 6
2 3 4 5 5 6 7 7 7 8 8 9 8 7 7 6 6 7 8 8 8 9 9 10 10 10 11 10 10 9 8 7 7 6 5 5 3 2 1 1 2 3 4 5 6 7 7 6 6
3 2 4 7 6 7 9 10 9 9 10 11 10 8 9 9 8 8 9 10 10 10 11 12 12 12 12 13 13 13 12 11 10 10 9 8 7 6 5 4 3 2 1 2 4 5 6 6 6
5 4 5 9 7 10 12 13 13 11 11 12 13 12 11 11 11 11 12 12 13 13 13 13 14 14 15 15 15 15 15 15 14 13 12 11 10 10 9 8 7 6 4 3 2 2 3 4 4
6 5 7 10 11 12 15 15 16 15 15 15 15 15 15 15 15 15 15 16 16 16 17 17 16 16 17 17 18 18 17 17 17 17 16 15 14 13 12 11 11 9 8 7 5 4 3 2 2
9 8 8 12 16 15 16 18 19 17 18 18 19 19 19 18 18 18 19 19 19 20 20 20 20 20 20 20 20 21 20 20 20 20 20 19 18 17 16 15 14 13 12 11 9 8 6 5 4
12 12 13 17 19 20 19 20 22 21 22 22 23 23 22 22 22 21 22 22 23 23 23 23 24 24 24 23 23 23 23 24 24 24 24 23 22 20 19 18 17 16 15 15 13 12 10 9 8
15 17 18 20 22 24 23 24 25 26 26 27 27 26 25 25 26 25 25 26 27 26 27 27 27 28 28 28 28 27 27 27 28 28 28 27 25 24 22 21 20 19 18 18 17 16 14 13 12
19 20 22 24 26 27 28 28 29 29 30 30 30 30 29 29 29 30 30 30 30 30 30 30 31 31 31 31 31 32 32 32 31 29 30 31 29 26 25 24 22 22 21 21 20 19 18 16 15
24 26 27 28 29 30 30 31 31 32 32 32 32 32 32 32 33 33 34 34 35 35 36 36 36 36 36 36 35 35 35 35 34 34 33 33 31 30 28 28 26 25 24 23 23 21 20 19 17
26 29 30 31 31 29 31 31 31 33 33 34 34 34 34 34 35 36 36 37 38 39 39 40 41 41 41 41 41 41 40 39 38 37 37 36 35 33 32 32 30 29 28 27 26 24 23 21 20
27 28 29 30 32 30 31 34 32 33 34 35 35 36 35 35 36 36 36 37 38 39 40 41 42 43 45 46 46 46 46 45 44 43 42 41 39 37 36 34 33 32 31 30 29 27 26 24 22
26 24 24 31 34 34 34 35 34 33 34 34 34 35 35 35 35 35 35 36 37 38 38 39 40 42 43 45 47 49 49 49 49 48 46 45 44 41 39 38 36 36 35 33 31 29 28 27 25
25 25 24 34 39 38 38 36 33 32 33 34 34 34 34 35 35 35 35 35 36 36 37 38 39 40 41 43 45 46 47 48 50 50 49 48 46 44 42 40 39 37 37 36 35 33 31 28 27
24 26 25 33 35 33 35 35 33 31 31 32 33 33 33 33 33 33 33 34 35 35 36 38 39 40 41 43 44 46 47 47 48 49 50 50 50 48 46 44 41 39 38 37 36 34 33 30 28
24 25 24 30 29 28 30 31 30 28 28 29 30 30 30 29 30 31 32 33 33 34 35 36 37 38 40 42 43 45 46 48 49 49 50 51 51 50 48 47 46 41 38 37 36 33 32 32 29
21 22 23 25 26 26 27 28 28 24 24 24 26 26 27 27 28 28 28 29 29 30 31 32 33 35 37 39 40 42 44 46 47 49 50 51 51 50 49 47 47 44 41 37 36 34 32 31 29
19 20 21 22 24 26 25 26 27 25 24 23 23 23 24 24 24 25 25 25 26 27 27 27 28 30 32 33 35 37 39 41 43 46 47 47 48 49 49 46 46 45 42 39 37 36 35 32 29
19 20 21 21 20 20 21 23 26 25 24 23 23 22 21 21 22 22 23 23 23 23 24 25 26 27 28 29 30 31 33 35 37 40 42 43 44 45 46 46 44 43 42 41 39 37 34 33 30
18 19 18 17 18 19 20 22 25 24 23 22 22 21 20 20 20 20 20 19 19 19 19 20 21 23 24 24 23 25 26 28 31 33 35 37 39 40 42 42 41 41 41 40 40 37 35 33 32
17 18 19 18 18 18 21 21 21 21 21 20 19 18 18 17 18 17 17 17 16 16 16 17 18 18 19 19 19 19 20 22 23 24 26 28 31 33 36 37 37 37 38 38 40 38 36 34 32
17 17 16 13 9 15 17 18 18 19 18 18 17 15 15 16 17 17 17 17 17 17 17 17 17 17 17 16 15 15 16 16 17 17 19 21 24 27 29 31 33 34 35 36 38 38 37 35 32
16 16 15 14 12 11 17 16 16 17 17 16 15 15 15 16 17 17 18 19 19 19 20 19 18 17 17 17 15 15 14 12 12 11 12 14 16 19 22 25 29 31 32 34 35 36 35 35 34
15 15 15 15 13 10 13 17 18 17 17 16 15 15 16 18 18 19 19 20 20 21 22 21 20 19 18 17 16 16 14 12 10 8 8 8 10 12 16 20 24 26 28 31 32 33 34 34 35
15 16 16 15 15 14 13 15 16 16 15 15 15 15 17 18 18 19 19 20 20 21 22 23 22 21 20 19 18 17 15 14 12 9 8 6 6 9 11 15 18 21 24 26 28 30 32 33 34
15 16 16 16 15 13 14 13 14 14 14 15 15 16 17 18 19 19 20 20 21 21 21 22 22 22 21 21 20 19 18 16 15 13 10 8 6 6 8 11 13 16 19 22 24 26 29 31 32

GEFSSGP_500_meanwind_048.txt.gz
Wind_Speed
9 8 8 8 6 5 5 6 9 9 8 7 7 6 6 5 4 3 2 0 1 1 1 1 2 3 4 5 5 6 6 6 6 6 6 5 5 4 3 2 1 2 4 5 7 8 10 12 13
9 7 7 7 6 6 7 9 10 9 9 8 7 6 6 5 4 3 2 1 2 3 3 3 2 1 1 2 2 3 4 4 4 4 5 5 4 4 3 3 2 0 1 3 4 5 6 8 9
8 6 6 6 6 6 8 10 10 10 10 9 8 7 7 5 4 3 3 3 3 4 4 5 5 4 3 3 2 2 1 1 2 2 2 3 3 3 3 3 2 1 1 1 2 3 4 5 5
5 5 5 5 6 6 8 9 9 10 10 9 9 8 7 5 4 4 5 5 5 5 6 6 7 7 7 7 6 5 4 3 2 2 1 0 1 1 2 2 2 2 2 2 1 1 2 3 3
4 3 6 6 7 7 7 9 9 9 9 10 10 8 8 6 5 5 6 6 6 6 7 8 9 9 10 10 10 9 8 7 6 6 5 4 3 2 1 0 0 1 2 2 2 1 1 1 1
3 5 6 7 8 7 7 8 10 10 10 10 11 10 9 9 7 7 7 8 8 8 8 9 10 11 12 13 13 13 13 12 11 10 9 8 7 6 5 4 3 2 1 1 1 1 1 0 1
4 5 7 9 8 7 7 10 12 14 14 13 13 13 12 11 10 9 8 9 10 10 10 11 12 13 14 15 16 16 16 15 15 14 13 12 11 10 9 8 7 5 4 3 2 1 0 0 1
6 7 9 9 9 9 9 11 13 15 17 16 16 16 15 14 14 14 13 12 12 13 14 15 15 16 17 18 19 19 19 19 18 17 16 15 14 14 13 12 11 9 8 7 5 4 2 1 1
9 9 10 10 11 11 12 14 16 18 19 19 20 19 19 18 18 18 18 17 16 16 17 18 19 19 19 20 20 21 22 22 22 20 20 19 18 17 16 15 14 13 12 11 9 8 6 4 3
10 11 12 14 14 16 17 17 19 21 22 23 23 23 23 23 23 23 22 22 22 21 21 21 22 22 22 22 21 22 23 23 23 23 23 22 22 21 20 19 18 17 15 14 13 12 10 9 7
12 13 13 15 17 20 21 21 22 24 26 26 26 26 26 26 27 27 27 28 28 27 27 27 26 26 26 26 25 24 25 25 24 24 25 26 26 25 24 23 22 21 20 19 17 16 14 13 11
14 16 17 18 21 23 24 24 25 26 27 28 28 29 29 29 29 30 31 32 33 33 33 33 33 32 31 31 30 29 28 28 27 27 28 27 27 28 27 27 27 25 24 23 22 20 19 17 15
17 19 20 21 23 24 25 25 26 27 28 29 30 31 31 31 32 32 33 34 35 36 37 38 38 38 37 36 35 34 33 32 31 29 30 28 29 29 30 29 28 28 28 27 25 24 22 21 19
19 20 21 22 23 23 24 25 27 27 29 31 32 33 33 33 33 33 34 35 36 37 38 39 40 40 40 40 40 39 38 37 35 34 31 31 31 30 30 31 30 29 29 29 28 27 25 24 23
20 21 22 23 23 24 25 27 28 29 31 33 33 34 34 34 33 33 34 35 36 36 37 38 38 39 40 41 42 42 42 41 40 39 38 36 35 33 33 32 32 31 30 29 30 29 28 27 26
22 22 23 25 26 26 27 27 27 29 30 31 31 31 32 32 32 32 33 33 34 35 36 36 37 37 38 38 39 39 40 40 40 40 40 40 40 39 38 35 34 34 34 34 33 31 30 30 28
22 23 24 26 27 28 27 27 27 28 29 30 29 29 29 30 30 30 30 31 31 33 34 35 35 36 36 36 37 38 38 39 39 39 39 40 40 41 40 40 38 36 35 35 35 34 32 31 30
21 23 24 27 28 28 27 26 26 26 27 28 28 28 28 28 28 28 28 28 28 29 30 31 33 34 34 35 36 37 38 38 38 38 38 39 39 40 41 41 40 39 37 36 36 34 33 32 32
19 21 23 26 27 27 26 25 25 25 24 25 25 26 26 27 26 25 25 25 26 27 27 28 29 30 31 33 33 34 36 37 37 38 38 38 38 38 39 40 40 40 39 37 37 35 33 32 32
17 20 22 24 25 25 25 23 22 20 20 21 22 23 23 23 23 23 24 24 25 25 25 25 24 25 26 27 29 31 33 35 37 38 38 38 38 38 38 40 40 40 40 40 38 37 35 33 31
17 20 22 23 23 23 22 20 17 17 17 18 19 20 21 21 21 21 21 21 22 22 21 21 21 22 23 25 26 28 30 32 34 36 37 38 38 38 37 38 40 40 41 40 39 39 37 35 34
16 19 20 21 21 21 20 17 16 17 18 19 19 19 19 19 19 19 19 18 18 18 18 18 18 19 20 22 23 25 27 28 30 32 34 36 36 37 37 38 39 40 41 41 40 40 40 38 36
15 16 17 18 18 17 16 15 15 17 19 20 19 19 19 20 19 18 18 17 17 17 17 16 16 16 17 18 19 20 21 22 24 27 29 32 33 35 35 37 38 39 41 41 41 41 41 39 38
13 15 16 16 15 13 13 14 15 18 19 19 19 19 20 19 19 18 19 18 18 18 18 17 17 17 16 16 15 15 16 17 19 21 23 25 28 30 32 34 36 38 39 41 42 42 41 40 40
12 13 14 14 13 12 12 13 15 16 17 18 18 18 19 19 19 19 19 19 19 20 19 19 18 18 17 16 14 13 13 14 14 15 17 18 21 24 27 29 31 35 37 39 41 42 42 41 41
12 13 14 13 13 12 12 12 14 14 15 16 17 18 18 19 19 19 19 19 19 20 20 20 20 19 18 17 15 14 14 14 13 12 12 13 15 16 19 22 26 30 34 38 40 41 42 41 40
12 13 13 13 13 12 11 11 13 13 14 15 16 18 18 19 19 19 19 19 20 20 20 20 21 21 20 18 16 16 15 15 14 12 10 9 9 11 13 16 19 23 28 33 38 41 41 41 40
12 13 14 14 13 12 12 12 13 13 14 15 17 18 18 19 19 20 19 20 20 20 20 20 21 21 20 20 18 18 17 16 15 13 12 10 8 7 8 11 14 18 22 27 32 36 40 40 39
11 12 13 13 13 13 12 13 13 13 15 16 17 18 18 19 19 19 19 20 20 21 21 21 21 21 21 21 20 19 18 18 16 15 13 11 9 8 7 7 9 11 16 20 25 30 35 36 37
11 12 13 13 13 13 12 12 13 14 15 16 17 18 19 19 19 19 20 20 21 21 21 22 22 22 22 22 21 20 19 19 18 16 15 13 12 10 8 7 7 8 10 14 19 24 29 32 34

GEFSSGP_500_meanwind_054.txt.gz
Wind_Speed
8 9 10 11 9 8 8 7 7 8 8 8 7 7 6 6 6 5 4 4 3 3 3 4 3 2 2 2 3 4 5 6 6 6 6 5 5 4 3 2 1 1 2 4 5 7 8 10 12
7 8 10 10 9 8 7 7 7 7 7 8 8 8 7 7 6 6 5 5 5 5 5 5 5 4 3 2 1 1 2 3 3 4 4 4 3 3 2 2 1 1 2 2 3 4 5 7 8
6 7 9 9 7 7 6 7 7 6 6 7 9 9 8 8 7 7 7 7 7 7 7 7 7 7 6 5 4 3 2 1 1 1 1 1 1 1 1 1 1 1 2 2 3 3 4 5 6
5 6 8 8 7 6 5 6 6 7 8 9 10 10 10 10 9 9 9 9 9 10 10 10 9 9 9 8 8 7 6 5 4 3 3 2 1 1 1 1 1 1 1 2 3 3 3 3 4
4 5 6 7 7 7 7 7 8 9 9 10 11 11 11 11 11 11 11 11 12 12 12 11 11 12 11 11 11 10 10 9 8 7 6 6 5 4 3 2 2 1 1 2 2 3 3 2 3
6 7 7 7 8 9 10 10 9 10 11 11 12 12 13 13 12 13 13 14 15 14 14 13 13 13 14 14 14 14 14 14 13 12 11 10 9 8 7 6 5 4 3 3 2 3 2 2 2
6 8 8 9 10 11 13 13 11 13 14 14 14 14 14 15 15 15 15 15 16 16 16 14 15 15 16 17 17 17 17 18 18 17 16 14 13 12 11 10 9 8 7 5 4 3 2 2 2
8 10 10 12 13 14 16 16 16 17 18 18 18 17 18 18 18 18 18 18 18 19 18 18 17 18 18 19 19 20 20 21 22 21 20 19 17 16 15 13 12 11 10 9 8 6 4 3 3
9 11 13 15 16 17 18 19 20 21 22 22 22 22 22 22 22 22 22 22 22 22 22 22 21 21 21 21 21 22 23 23 23 23 23 22 21 20 18 17 16 15 14 13 11 10 8 6 5
11 13 15 17 18 20 20 22 23 24 25 25 25 25 26 26 26 26 27 27 27 28 27 27 27 27 26 25 25 24 24 24 24 24 24 24 24 23 22 20 19 18 17 16 15 14 12 10 9
13 14 16 18 20 21 22 23 24 26 27 27 28 28 28 28 29 30 31 32 33 34 34 34 34 34 33 32 31 30 28 27 26 25 26 26 25 24 24 23 23 22 21 20 19 17 16 14 13
15 16 18 20 21 22 23 24 25 26 28 28 29 30 31 32 32 33 34 35 36 37 38 38 39 38 38 37 37 36 35 33 32 30 27 26 26 26 25 27 26 26 24 23 22 21 20 18 17
16 17 19 20 21 22 24 25 26 27 28 30 32 33 32 32 33 33 34 35 36 37 39 39 40 40 40 40 40 40 40 39 37 36 33 31 29 28 27 27 28 28 27 26 24 24 23 22 21
18 19 20 21 22 23 24 25 26 28 29 30 30 30 29 30 30 30 31 31 33 34 36 37 38 38 39 39 40 41 41 41 41 41 39 37 35 33 32 30 28 30 29 28 27 26 26 25 24
18 19 21 22 22 23 23 24 26 28 28 29 29 30 30 30 30 30 29 29 29 30 31 32 33 34 35 36 37 38 40 40 41 42 42 42 41 39 37 35 33 32 31 30 29 28 26 25 26
19 20 22 22 22 22 24 24 26 27 27 28 29 30 30 29 28 28 27 27 28 28 29 30 30 31 31 32 33 35 36 37 38 40 41 42 43 43 42 40 39 37 34 33 31 30 29 27 27
20 21 22 22 21 22 23 24 25 25 26 28 28 28 27 27 27 27 27 26 26 26 27 27 28 29 29 30 30 32 33 34 35 37 39 40 42 42 43 43 43 42 40 37 35 33 31 29 29
20 21 21 22 22 23 23 23 23 24 25 25 25 25 26 26 26 25 25 25 25 25 25 25 25 26 27 28 29 29 31 32 34 35 36 38 40 41 42 42 44 43 42 41 39 37 35 33 31
20 20 21 21 22 21 21 21 22 22 22 22 22 23 24 24 23 22 22 22 22 21 20 20 20 21 22 23 25 26 27 29 31 33 35 36 38 39 40 41 42 43 43 42 41 40 39 37 35
18 18 20 20 20 19 19 19 19 19 19 19 21 22 22 21 21 20 20 21 20 19 18 17 17 17 17 19 20 22 23 25 27 29 31 33 35 37 38 40 41 42 42 42 42 42 41 39 38
15 17 18 18 18 17 17 15 16 15 16 17 18 18 18 19 19 19 20 20 20 19 19 18 17 16 16 16 16 17 19 20 22 24 27 29 32 34 37 39 41 42 42 42 42 43 42 40 39
14 16 16 16 16 15 14 13 13 13 14 15 16 16 17 18 18 19 20 20 20 20 20 19 18 17 16 16 15 15 15 17 19 21 23 25 28 30 33 36 39 42 43 43 42 42 43 42 41
13 15 15 15 14 12 11 11 11 12 13 14 15 16 17 18 19 19 20 20 20 20 21 20 19 18 17 16 15 14 13 14 15 17 19 21 23 26 28 32 35 39 41 43 44 43 43 43 43
12 13 13 12 11 10 10 10 11 12 13 14 16 17 18 19 20 20 20 20 20 21 21 20 20 19 18 17 16 14 13 14 14 14 15 17 19 21 24 28 31 35 38 41 42 44 43 43 44
11 12 11 11 11 10 10 10 11 12 14 15 16 18 19 19 20 20 20 21 21 21 21 20 20 20 20 19 17 15 14 14 14 14 14 15 16 18 20 22 26 30 34 37 41 42 43 43 44
9 10 10 10 10 9 9 10 11 13 15 16 17 18 19 19 20 20 21 21 21 21 21 21 20 21 21 20 18 16 15 14 14 14 14 14 14 14 16 17 20 24 28 32 37 40 42 43 44
7 9 9 8 8 8 9 10 12 13 15 16 17 18 19 19 19 20 21 22 21 22 21 21 21 21 21 20 19 18 17 16 15 15 14 13 12 12 13 14 16 19 23 27 31 36 40 42 43
7 8 8 7 7 8 9 10 11 12 14 16 17 18 18 19 19 20 21 22 22 22 22 22 22 22 23 22 21 20 19 18 17 15 14 13 12 12 12 13 14 16 18 21 25 29 33 37 40
6 7 7 7 8 8 8 10 11 12 14 15 17 17 18 18 19 20 21 22 22 22 22 22 22 22 23 23 22 21 20 19 18 17 16 14 13 12 12 12 13 14 16 18 21 25 29 33 36
5 6 7 7 8 8 9 10 11 12 14 15 16 17 18 18 19 20 21 22 22 23 23 23 24 24 24 23 23 22 21 20 19 18 17 16 15 14 13 13 12 12 13 15 17 20 24 28 32

GEFSSGP_500_meanwind_060.txt.gz
Wind_Speed
6 6 7 7 7 7 7 6 5 5 4 4 4 4 4 4 5 6 6 6 6 7 7 7 7 7 7 7 7 7 7 7 7 7 7 7 7 7 7 7 7 7 7 8 8 8 9 10 11
4 5 5 5 6 6 5 5 5 5 4 4 4 4 5 5 6 6 7 7 8 8 9 9 9 9 9 9 9 8 8 8 8 7 7 7 7 6 6 6 6 6 6 6 7 7 7 8 9
2 3 4 4 4 3 3 4 5 5 5 6 6 6 6 7 7 8 8 9 10 10 11 12 12 12 12 12 11 11 11 10 10 9 9 8 8 7 7 7 7 6 6 5 5 5 6 6 6
3 2 3 4 4 5 4 6 6 7 7 8 8 8 9 9 10 10 10 11 11 12 13 13 14 15 15 15 15 14 14 13 13 12 11 11 10 9 8 7 7 7 6 5 5 5 5 5 5
4 4 4 4 5 7 7 8 10 9 10 11 11 12 12 12 12 13 13 14 14 14 14 15 15 17 18 18 18 18 17 16 16 15 15 14 12 11 10 9 8 7 7 6 5 5 4 4 4
6 6 6 6 8 9 10 11 13 12 13 14 15 16 17 17 17 17 17 18 17 17 17 16 16 17 19 19 20 20 20 20 20 19 18 17 16 15 13 12 11 9 8 7 6 5 5 4 3
7 7 8 9 10 11 12 14 15 14 16 17 18 20 20 21 21 21 21 21 21 21 21 21 20 20 20 20 20 20 21 22 23 23 22 20 19 18 17 15 14 12 11 9 8 7 6 5 4
9 9 10 11 12 13 15 16 17 18 19 20 22 23 24 24 25 25 25 26 25 25 26 25 24 23 23 21 21 21 22 23 24 25 25 24 23 21 20 18 17 16 14 13 11 9 8 7 5
10 10 12 13 14 16 17 18 19 20 22 23 24 25 26 27 28 28 29 29 30 31 31 31 30 29 27 27 25 25 25 24 24 24 25 25 25 24 22 21 20 19 18 16 15 13 11 9 8
12 12 14 15 17 18 19 20 21 23 24 25 27 28 28 29 29 30 31 32 32 33 34 35 36 35 34 33 33 32 29 28 27 25 25 25 25 25 25 24 23 22 21 20 18 16 15 13 11
13 14 16 17 18 20 21 23 24 25 26 27 28 28 28 28 28 29 30 31 32 33 35 36 37 38 38 38 39 38 37 35 34 31 28 27 25 26 26 26 25 25 24 22 21 20 18 16 15
14 15 17 19 20 21 23 24 26 26 27 28 28 27 27 26 27 28 29 30 31 32 33 34 35 36 38 39 40 41 41 41 39 37 34 31 29 29 28 26 27 27 26 25 23 22 21 20 19
16 17 18 20 21 22 23 25 26 26 26 26 26 25 25 26 26 27 27 28 29 30 31 31 32 33 33 35 37 39 41 42 42 41 40 38 36 33 32 30 27 28 28 27 27 26 23 22 21
17 18 20 21 21 22 23 24 25 25 24 24 25 25 24 24 24 25 25 26 26 27 28 29 29 30 30 31 32 34 36 39 42 43 43 42 41 40 36 34 32 30 29 29 28 29 27 25 23
18 19 20 21 22 22 23 22 22 23 23 24 23 22 22 22 22 23 23 23 24 24 24 25 26 27 28 28 29 30 31 33 36 39 42 43 43 43 42 39 37 34 33 32 29 29 29 28 27
19 20 20 20 21 21 21 21 21 21 21 21 20 20 19 20 21 21 21 21 22 22 22 22 23 24 25 25 26 27 28 30 32 34 37 40 42 43 44 43 42 39 37 36 34 31 30 30 30
18 19 20 20 19 19 19 19 19 19 19 18 18 18 19 20 20 20 20 20 20 20 21 21 21 21 21 21 23 24 25 27 28 30 33 36 39 41 42 43 43 43 41 39 37 35 34 32 31
18 18 18 18 17 17 17 17 17 16 16 16 16 17 18 18 18 19 19 20 20 20 19 19 18 18 17 18 19 20 21 24 25 27 29 33 36 38 40 42 43 43 43 43 41 40 38 35 33
17 16 16 16 16 15 15 15 14 14 13 14 15 16 16 17 18 19 19 20 20 19 19 18 18 16 16 15 15 15 16 18 20 23 25 28 31 35 37 40 41 42 43 43 43 43 42 40 38
14 14 14 14 13 13 13 12 11 11 12 13 14 15 16 18 18 18 19 19 20 20 19 19 18 17 16 15 14 14 13 14 15 17 20 23 26 30 34 37 40 41 42 42 43 43 43 42 41
12 12 12 12 11 10 9 9 9 10 11 12 13 15 17 17 18 18 19 19 20 20 19 19 18 18 17 16 14 13 13 12 13 14 16 19 22 25 29 33 37 40 42 43 43 44 44 43 42
10 10 9 8 8 7 7 7 8 9 11 12 13 15 16 17 18 19 19 19 20 19 19 19 19 18 18 17 15 14 13 12 12 12 13 15 17 21 24 27 31 35 38 41 43 44 44 44 43
8 7 6 5 5 4 5 6 8 9 11 12 13 14 15 16 18 19 20 20 20 19 19 19 19 19 19 18 17 15 14 13 12 12 13 13 15 17 20 23 27 30 34 37 40 42 44 44 44
5 3 3 3 3 3 4 6 7 9 10 12 13 14 15 16 18 19 20 20 20 20 19 19 19 19 19 19 18 16 15 14 13 13 12 13 14 15 17 19 23 26 30 34 37 40 42 44 45
2 0 2 2 3 3 4 6 7 9 10 12 13 14 15 16 18 19 20 20 20 20 20 20 20 20 20 20 19 18 17 16 15 14 14 14 13 13 14 16 18 22 25 29 33 37 41 43 45
2 2 3 4 4 4 4 6 7 8 10 12 13 14 15 16 17 19 20 20 20 20 20 21 21 21 21 21 20 20 19 18 16 15 14 14 13 13 13 14 15 18 21 24 28 33 37 41 44
4 4 5 5 5 5 5 6 7 9 10 12 13 14 15 16 17 18 18 19 20 21 21 21 21 21 22 22 22 21 21 20 18 16 16 15 14 13 13 13 14 15 18 21 24 27 31 35 39
5 5 6 5 5 5 5 6 7 9 10 12 13 14 14 15 16 17 17 18 19 21 21 21 22 22 22 22 22 22 22 21 20 19 18 17 16 14 14 14 14 15 16 18 21 24 27 31 34
5 6 6 6 5 4 4 5 6 8 10 11 12 13 14 14 15 16 17 18 19 20 21 21 22 22 22 22 22 22 22 22 22 21 20 19 18 17 16 16 16 16 17 18 19 21 24 27 31
6 6 6 5 4 4 4 5 6 8 9 11 12 13 13 14 14 15 16 17 18 19 20 21 22 22 23 23 23 23 23 23 23 23 22 21 20 19 18 18 17 17 17 17 18 20 22 24 27

GEFSSGP_500_meanwind_066.txt.gz
Wind_Speed
5 5 6 6 5 4 5 6 6 7 7 8 8 8 8 8 9 10 11 12 12 12 13 13 13 14 14 14 13 13 12 11 11 10 10 10 10 10 11 11 12 12 13 13 14 14 14 14 14
4 5 5 4 5 6 6 6 6 8 9 9 10 10 10 10 11 12 12 14 14 14 14 14 15 16 16 16 17 16 15 14 13 13 12 12 11 11 11 11 12 12 12 12 13 13 13 13 13
4 5 5 5 6 6 7 8 9 10 11 11 11 12 12 12 14 14 15 16 16 16 17 17 16 16 17 18 19 19 19 18 17 16 15 15 14 13 12 12 12 12 12 12 12 12 12 11 12
4 6 5 6 6 8 9 10 10 12 13 13 13 14 14 15 16 17 18 18 19 19 20 19 19 18 18 19 20 21 22 23 22 20 19 18 17 16 15 14 13 12 12 11 11 11 11 10 10
5 5 6 7 8 9 11 12 13 15 16 16 16 17 17 18 20 21 21 22 23 23 22 22 22 21 21 22 22 22 24 25 25 25 24 22 20 19 18 16 15 14 13 12 12 11 10 10 10
7 7 8 9 12 12 12 14 16 17 18 19 20 20 21 22 23 24 25 26 27 27 27 26 25 25 25 24 24 24 25 26 27 27 27 25 24 23 21 19 18 16 15 14 13 11 11 10 9
9 9 11 13 15 14 15 16 18 20 21 22 23 23 24 24 26 27 28 29 30 30 30 30 29 28 28 28 27 27 26 27 27 29 28 28 27 27 25 23 21 20 18 16 15 13 11 10 9
11 10 11 14 17 17 17 19 20 22 23 24 25 26 26 27 28 29 29 30 31 31 32 32 32 32 32 32 31 30 30 29 29 29 30 30 29 29 29 27 25 23 21 20 18 15 13 11 10
12 10 11 14 18 20 20 21 22 24 25 25 26 27 28 28 29 29 30 30 30 31 32 33 33 33 33 34 34 34 34 32 31 30 30 31 30 29 29 30 28 27 25 23 21 19 16 14 12
14 13 15 16 20 22 22 23 25 26 26 26 26 27 27 28 29 30 30 30 30 31 32 32 33 33 33 33 34 34 35 35 35 34 33 31 29 29 28 28 30 31 29 26 24 22 20 17 15
15 16 18 18 21 22 23 24 25 27 27 27 27 27 27 28 29 30 30 30 30 30 31 31 32 32 32 32 32 32 33 34 36 36 36 35 32 31 31 30 28 29 30 28 26 24 23 21 18
17 18 20 21 21 22 24 24 25 26 27 27 26 27 28 28 28 28 28 28 28 28 29 29 29 29 30 30 30 30 31 32 33 34 36 36 35 33 32 32 32 30 29 30 30 28 25 24 22
18 19 19 21 21 23 24 25 26 26 25 25 26 26 27 27 26 25 25 25 25 25 24 25 25 26 26 27 26 27 28 29 29 30 33 35 35 35 34 34 33 33 31 30 29 29 28 27 25
16 17 19 21 22 23 24 25 25 23 24 24 25 25 24 23 23 23 23 23 23 22 22 23 23 23 23 23 23 24 24 25 27 27 29 30 31 32 33 34 34 33 33 32 31 30 29 29 29
19 20 21 20 22 21 23 25 23 22 23 23 23 22 21 21 22 22 21 21 22 22 22 22 22 22 22 21 21 21 21 22 23 25 26 27 29 29 30 31 33 33 33 34 32 31 31 29 28
19 19 18 19 20 21 22 24 23 22 22 21 21 20 19 20 20 20 21 21 21 22 22 22 22 22 21 20 19 19 18 19 20 21 22 24 26 27 29 29 30 31 32 33 34 33 31 31 29
17 14 14 19 20 21 21 22 21 19 19 19 18 18 19 19 19 19 20 21 21 22 22 22 22 21 20 20 18 17 16 16 16 17 19 21 23 24 26 28 29 30 31 33 34 33 33 33 31
15 15 13 18 23 21 20 20 20 16 16 16 16 17 17 18 18 19 20 21 21 21 21 21 21 21 20 18 17 15 14 13 13 14 15 16 18 21 23 25 26 28 30 31 34 35 34 33 32
14 15 15 20 22 20 19 18 18 14 13 13 14 15 16 17 18 19 20 21 21 21 21 21 21 20 19 18 16 15 14 13 12 12 13 14 15 17 20 22 24 26 28 30 32 34 35 35 34
16 14 15 19 19 16 15 14 13 12 12 12 13 14 15 17 18 19 20 21 21 21 21 21 20 20 19 18 16 15 14 13 12 12 12 12 13 14 17 19 21 23 26 28 30 32 33 34 35
16 16 16 17 16 13 11 10 8 8 10 11 12 13 14 16 17 19 20 21 21 21 21 21 21 20 19 19 17 16 14 13 12 11 12 12 12 13 15 17 19 21 23 25 28 30 32 33 35
16 16 14 14 12 10 9 8 6 7 8 10 11 12 13 15 16 18 19 20 20 21 21 21 21 21 20 20 19 17 15 14 12 11 11 11 11 12 14 15 17 19 21 23 25 28 30 32 34
16 13 12 10 9 7 6 6 7 6 8 9 11 12 13 14 16 17 18 19 20 21 21 22 22 22 21 21 21 19 17 16 15 13 12 11 11 12 13 13 15 17 18 21 23 26 29 31 33
13 11 9 7 5 4 4 5 7 6 7 9 10 11 12 14 15 16 17 18 19 21 21 22 22 22 22 22 22 21 20 19 18 16 14 13 12 12 12 12 14 15 16 18 20 23 26 29 31
11 9 7 2 4 5 4 5 6 5 6 8 9 10 11 13 14 15 16 18 19 20 21 22 22 22 22 22 22 22 22 21 20 19 17 16 14 13 13 12 13 13 14 16 18 20 23 26 29
10 10 10 8 3 8 8 7 4 4 5 7 8 9 10 11 13 14 15 17 18 19 20 21 22 22 22 22 22 23 23 23 22 21 20 19 17 16 15 13 13 13 13 15 16 19 21 24 27
11 11 11 10 11 7 7 5 2 4 5 6 7 8 9 10 12 13 14 15 17 18 19 20 21 22 22 22 22 22 22 23 23 23 22 21 20 18 17 15 14 14 15 16 18 19 20 23 25
10 10 9 11 11 8 6 8 3 2 4 5 6 7 8 9 10 12 13 14 16 17 18 19 20 21 22 22 23 23 23 23 23 23 23 22 22 20 19 17 16 16 15 16 17 19 21 22 24
11 11 10 10 9 10 8 7 3 3 4 5 6 6 7 8 9 11 12 13 15 16 18 19 20 21 21 22 22 23 23 23 23 24 24 23 23 22 21 19 18 18 17 17 17 19 20 22 24
10 10 11 11 10 9 7 4 3 2 3 4 5 6 7 8 9 11 12 13 15 16 17 18 19 20 21 21 22 22 23 23 23 23 24 24 24 24 23 21 20 19 19 19 19 20 21 22 23

GEFSSGP_500_meanwind_072.txt.gz
Wind_Speed
3 4 4 4 1 4 3 4 6 6 6 6 8 8 9 9 9 10 10 11 10 11 12 12 12 13 13 13 13 14 14 14 14 14 14 13 13 13 13 13 14 14 15 15 16 16 17 17 17
4 5 5 4 3 4 3 4 6 6 7 7 8 9 10 11 11 12 12 13 13 14 15 15 16 16 15 15 15 16 17 17 17 18 17 16 16 15 15 14 14 14 15 15 15 15 16 16 17
5 6 5 6 6 4 5 6 7 8 9 10 10 10 11 13 14 15 16 17 18 18 18 18 18 19 19 19 19 19 20 20 19 20 21 20 19 18 17 16 15 15 15 15 15 15 15 16 16
5 6 7 8 9 6 7 8 10 10 12 12 12 13 14 15 17 18 19 20 21 21 21 21 22 22 23 22 22 22 23 23 22 22 23 23 23 22 20 19 18 17 16 16 15 15 15 15 15
6 8 10 10 11 10 10 10 11 11 13 14 15 16 17 18 19 20 21 22 23 24 25 25 25 25 25 26 26 26 26 26 25 25 25 25 26 26 25 23 21 20 18 17 17 16 15 14 14
9 10 11 12 13 13 13 13 13 14 14 16 17 18 18 19 20 22 23 24 25 26 26 26 26 27 27 27 27 28 28 29 28 28 28 28 27 29 28 27 25 23 21 20 19 17 16 15 14
11 12 14 15 15 14 13 13 14 15 17 18 19 19 20 21 22 23 24 25 26 28 28 28 28 28 28 28 28 29 30 30 31 31 30 30 30 29 30 29 28 26 24 22 21 19 17 16 14
13 14 15 16 15 14 13 14 15 16 17 19 20 20 21 21 22 23 24 25 27 28 28 28 28 28 29 29 29 29 30 31 32 33 33 32 32 32 31 31 30 29 27 26 24 22 20 18 16
14 15 16 16 16 15 15 15 16 17 18 19 20 21 21 22 22 23 24 25 26 26 25 26 25 26 26 27 27 28 29 30 32 33 34 34 32 31 32 32 31 31 30 29 27 25 22 20 18
15 17 17 17 16 15 16 17 18 17 18 19 20 20 21 22 22 23 22 22 22 22 23 23 23 23 23 23 24 25 27 28 30 31 33 34 34 33 31 32 33 32 32 32 30 28 25 23 21
16 16 17 15 14 13 14 17 18 18 19 19 20 21 21 21 21 21 21 20 20 21 21 21 21 22 22 22 22 23 24 25 27 28 29 31 33 33 33 31 31 32 32 32 31 29 27 25 24
18 17 17 14 13 12 13 16 17 18 19 20 20 21 21 21 21 21 20 20 20 20 20 20 20 20 20 20 20 20 21 22 23 25 26 28 30 31 32 33 32 30 31 30 31 30 29 28 26
19 18 16 13 11 11 12 14 16 17 18 19 19 20 20 20 20 19 19 19 19 19 19 19 20 20 20 20 19 19 19 19 20 22 23 25 26 29 30 31 32 31 30 30 31 31 30 29 27
18 16 15 12 11 11 12 14 15 16 17 17 17 17 18 17 17 18 18 18 19 19 18 18 19 19 19 19 18 18 18 18 18 18 19 21 23 25 27 29 30 30 30 30 30 30 31 31 29
19 17 15 13 11 11 13 12 13 15 15 15 15 15 15 15 16 16 17 18 19 19 19 19 19 19 19 18 18 17 16 15 15 15 16 18 19 21 24 26 27 28 29 30 30 30 30 32 32
17 14 13 12 11 11 11 11 12 13 13 13 13 13 14 14 15 16 17 18 19 19 20 19 19 19 18 17 16 15 14 13 13 13 14 15 17 18 20 22 24 26 27 29 30 31 31 31 33
15 15 14 13 12 11 11 11 11 11 11 11 12 12 13 14 15 16 17 18 19 20 20 19 19 18 17 16 16 14 13 12 11 10 11 11 13 15 17 19 21 23 25 26 27 29 30 32 33
15 14 13 13 12 11 10 10 9 10 10 10 10 11 12 13 14 15 16 18 19 19 19 19 19 19 18 17 16 15 13 11 10 9 8 9 11 12 14 16 18 21 23 24 25 27 28 30 33
14 14 14 13 13 12 11 9 9 9 8 8 9 10 11 12 13 14 16 17 18 19 19 20 20 20 19 19 18 16 15 13 11 9 7 8 9 10 12 14 15 17 19 22 24 26 27 29 30
13 13 13 13 12 12 11 9 8 7 6 6 8 10 11 11 12 13 15 16 17 18 19 20 20 21 20 20 19 18 17 15 13 10 8 6 6 7 9 11 12 15 17 19 22 24 27 28 29
11 11 12 13 12 11 11 9 6 4 3 5 7 9 10 10 11 13 14 15 16 17 18 19 20 21 21 21 20 19 18 17 15 13 11 9 7 7 7 8 9 12 15 17 19 22 24 27 29
10 11 12 12 11 10 10 8 5 2 1 4 6 7 8 9 10 12 13 14 16 17 18 19 20 21 21 21 21 20 20 19 17 16 13 11 9 8 7 7 8 9 11 14 17 20 22 24 27
11 11 12 12 11 9 8 6 3 2 2 3 5 6 7 8 9 11 12 13 15 16 17 18 19 20 21 21 21 21 21 20 19 17 16 14 12 10 9 7 7 8 9 11 14 16 19 22 25
12 12 12 12 10 9 7 4 4 4 3 3 4 5 6 7 8 9 11 12 14 15 16 18 19 19 20 20 20 20 20 20 19 19 18 16 15 13 11 10 8 7 8 9 11 14 17 20 23
12 12 12 12 11 9 7 6 5 5 4 3 3 4 5 5 7 8 9 11 12 14 15 17 18 19 19 19 20 20 20 20 19 19 19 18 16 15 14 12 10 9 8 9 11 13 15 18 21
12 11 12 12 12 11 9 7 6 5 4 3 3 3 3 4 5 7 8 10 12 13 15 16 17 18 19 19 19 19 20 20 20 19 19 19 18 17 15 14 13 11 10 10 11 12 14 16 19
11 11 10 12 13 12 10 8 6 6 4 3 2 1 2 3 4 6 7 9 11 12 14 15 16 17 18 19 20 20 20 20 20 20 20 19 19 18 17 16 15 13 12 12 12 13 14 16 18
10 10 10 11 12 12 10 9 8 7 5 4 2 1 1 2 3 5 7 8 10 12 14 15 16 17 18 19 20 20 20 20 20 20 20 20 20 19 18 18 17 15 14 14 14 13 14 15 17
10 10 11 11 12 12 10 9 8 7 6 4 3 2 1 1 2 4 6 8 10 12 14 15 16 17 18 19 20 20 21 20 20 20 21 21 20 20 19 19 18 18 17 16 15 14 14 15 16
10 11 11 11 11 11 9 8 8 7 7 6 4 3 1 1 2 4 6 8 10 12 14 15 17 18 19 20 20 20 20 20 20 21 21 21 21 21 20 19 19 19 18 18 17 15 15 15 15

GEFSSGP_500_meanwind_078.txt.gz
Wind_Speed
5 6 7 6 3 1 4 3 2 3 5 6 7 7 8 9 10 10 11 11 12 12 14 14 15 15 16 16 17 17 16 16 16 15 14 14 13 13 12 12 11 12 12 12 12 12 12 13 13
6 7 6 4 2 2 2 1 2 5 6 8 8 9 10 11 12 13 14 14 15 16 17 17 18 19 19 19 19 20 20 19 19 19 18 17 16 16 15 15 14 13 12 12 12 12 12 12 12
8 8 7 4 3 3 2 3 5 7 8 9 10 11 12 13 14 15 16 17 17 18 19 20 21 21 22 22 22 23 23 22 22 21 21 20 19 19 18 18 16 15 14 13 13 13 12 12 12
9 10 10 7 5 5 5 6 7 8 9 10 11 12 13 15 16 17 18 19 19 21 22 23 23 24 25 25 25 25 26 26 26 25 24 23 22 21 21 20 19 18 17 16 15 14 13 13 13
10 10 10 8 7 8 8 8 9 9 10 11 12 13 15 16 17 18 19 20 21 22 24 25 26 26 26 27 27 28 28 29 29 29 28 26 25 24 23 23 22 21 20 19 17 16 15 14 13
11 11 11 11 10 10 10 10 10 11 12 12 14 15 16 17 18 19 20 21 22 23 24 25 26 26 26 26 27 27 28 29 29 30 30 29 28 27 26 25 24 24 23 22 20 18 17 16 14
13 14 13 13 12 11 11 11 11 12 13 13 15 16 17 18 19 20 21 22 23 23 24 24 25 25 25 25 26 26 27 28 29 30 31 31 31 30 28 28 27 26 26 25 24 22 19 17 16
15 15 15 14 13 13 13 13 13 14 14 14 15 16 16 18 19 20 21 22 22 22 22 22 22 22 22 22 23 24 25 26 27 29 30 31 31 31 31 30 29 28 27 27 26 24 22 20 18
16 16 15 14 14 15 15 14 14 14 14 14 14 16 17 18 19 20 20 20 20 21 21 21 21 21 21 21 22 22 23 24 25 26 28 30 31 32 32 30 29 29 28 27 27 26 23 22 20
17 16 15 14 14 15 16 14 14 14 13 14 14 15 17 17 18 18 18 19 19 19 20 20 20 20 20 21 21 21 21 22 23 24 25 27 29 30 31 31 31 30 30 28 26 27 25 23 21
18 17 17 15 13 14 14 14 13 13 12 13 15 16 16 15 16 17 17 17 17 18 18 19 19 19 19 19 19 19 19 20 20 21 23 25 26 28 29 30 31 31 30 30 28 26 26 24 22
19 18 17 16 14 14 14 14 12 12 12 13 14 15 14 14 15 15 16 16 16 17 18 19 19 19 19 19 18 18 19 19 19 20 20 22 23 25 27 28 29 30 30 30 30 29 28 26 24
19 17 15 14 12 12 12 12 12 12 12 12 13 13 13 13 13 13 14 14 16 17 18 18 19 18 18 18 17 17 18 18 19 19 19 20 20 21 23 26 27 28 28 28 28 28 29 29 26
19 17 15 14 12 11 12 12 13 12 12 12 12 12 11 11 11 12 13 14 16 17 18 18 19 19 18 17 17 16 16 16 16 16 16 17 18 18 20 22 24 26 27 27 28 28 27 28 28
17 16 15 13 11 11 12 12 12 11 12 11 11 10 9 9 10 11 12 13 15 16 17 18 18 19 18 18 17 17 17 16 15 14 14 14 15 16 17 19 21 22 24 26 27 27 28 27 28
15 14 13 11 10 11 12 12 12 12 11 11 10 9 7 7 8 9 11 12 14 15 16 17 18 19 19 19 18 17 17 15 14 13 12 11 12 13 14 15 17 19 21 23 25 26 26 27 28
14 13 11 10 9 11 11 11 12 11 10 10 9 7 5 5 6 8 10 12 13 15 16 17 18 19 20 20 19 18 17 16 14 13 12 10 10 10 11 12 14 16 17 19 22 24 26 26 27
14 13 9 9 10 11 11 12 12 11 10 9 7 6 3 3 5 7 9 11 13 14 16 17 19 20 20 20 20 19 18 17 16 15 13 11 9 8 8 9 11 13 15 17 19 21 23 25 26
14 11 9 10 10 11 11 11 11 11 9 7 6 5 2 1 4 6 8 10 12 14 16 17 19 19 20 20 21 20 20 18 17 16 15 12 10 8 6 7 8 10 12 14 17 19 21 23 25
13 11 11 11 11 12 12 12 11 10 8 7 6 4 2 1 3 5 7 9 11 13 15 17 18 19 20 20 21 21 21 20 19 18 16 14 12 9 6 5 6 8 9 12 14 17 19 21 24
11 12 12 12 12 12 12 11 11 9 8 7 6 5 3 2 3 4 6 8 10 12 14 16 17 18 19 20 20 21 21 20 20 18 17 15 14 11 9 7 5 6 7 10 12 14 17 20 22
13 13 13 13 13 12 12 10 10 9 8 7 6 6 4 3 3 4 5 7 10 12 13 15 17 18 19 20 20 20 20 20 20 20 18 16 15 13 11 9 7 6 5 7 9 12 15 18 20
14 14 14 14 14 12 11 10 9 8 8 8 7 7 5 4 3 3 4 6 8 11 12 14 16 17 18 19 20 20 20 20 20 20 18 17 15 14 12 11 9 7 5 5 7 9 12 15 18
14 15 15 14 14 12 11 10 8 9 9 9 8 7 6 4 2 2 3 5 8 10 12 14 15 17 18 19 19 20 20 20 19 19 18 17 16 15 13 12 11 9 7 5 5 7 10 13 15
15 15 15 15 13 12 11 10 9 9 9 9 9 8 7 5 3 1 2 5 7 9 11 13 15 16 18 19 19 19 19 19 19 19 18 17 16 15 14 13 12 10 8 7 7 7 8 11 13
15 15 15 15 14 12 11 10 9 10 10 10 10 9 7 5 3 1 2 4 6 9 11 13 15 16 17 18 19 19 19 19 18 18 18 17 16 15 14 14 13 11 9 8 7 7 8 9 11
14 15 16 16 15 14 12 10 10 12 12 12 11 10 8 6 4 2 1 3 6 8 11 13 15 16 17 18 18 18 18 18 18 18 18 17 16 15 15 14 14 12 11 10 9 9 9 9 11
14 15 15 16 16 15 12 10 11 13 13 12 12 10 9 7 5 3 2 3 6 8 10 13 14 16 17 17 17 17 17 18 17 17 17 17 16 16 15 15 14 13 13 12 11 11 10 10 10
13 14 15 15 15 15 12 10 12 13 13 12 12 11 9 8 6 4 3 4 6 8 10 12 14 15 17 17 17 16 17 17 17 17 17 17 17 16 15 15 15 14 14 13 13 12 12 11 11
15 15 15 15 15 14 13 10 13 14 13 13 12 12 10 9 7 5 4 4 6 8 10 12 13 15 16 16 16 16 16 16 16 16 16 16 16 16 16 16 15 15 15 14 14 13 13 12 12

GEFSSGP_500_meanwind_084.txt.gz
Wind_Speed
5 3 2 3 3 1 2 3 3 3 3 4 5 6 6 7 8 10 11 12 13 13 14 15 15 15 16 17 17 17 17 17 17 17 16 16 16 16 16 16 16 17 17 16 16 15 15 15 15
6 5 4 4 2 0 1 2 3 4 5 5 6 7 8 9 10 11 12 14 14 15 16 17 17 18 19 20 21 21 21 21 21 20 19 19 19 18 18 19 19 19 19 18 17 17 16 15 15
7 6 5 3 2 2 1 2 4 5 6 7 8 9 9 11 12 13 14 15 16 17 17 18 19 20 21 22 23 23 24 24 24 24 23 22 22 21 21 21 21 21 21 20 19 18 17 16 15
9 7 6 5 4 4 4 5 6 6 8 9 10 10 11 12 13 14 15 16 18 18 19 20 21 21 21 22 23 24 26 26 27 28 28 27 26 25 24 23 23 23 22 21 21 20 18 17 16
10 9 8 8 6 6 6 7 8 8 9 10 11 11 12 13 14 15 16 18 19 20 20 21 21 21 22 23 23 25 26 27 28 29 29 29 28 28 27 26 25 24 24 24 23 21 20 19 18
12 10 10 9 8 8 9 10 10 9 9 10 12 13 14 14 15 16 17 18 19 19 20 20 20 21 22 22 23 23 24 25 26 28 29 29 29 29 29 29 28 27 25 25 24 22 21 20 19
14 12 12 11 10 10 10 10 10 10 11 12 13 14 14 15 15 16 17 17 18 18 18 18 19 19 20 20 21 21 22 23 24 26 27 28 29 29 30 31 31 30 29 26 24 24 24 22 21
16 14 14 12 11 10 10 10 10 11 11 12 13 13 14 14 15 16 16 16 16 16 16 17 17 18 18 19 19 20 21 22 22 24 25 26 27 28 29 30 31 31 30 30 27 25 25 24 23
17 16 15 13 12 11 11 10 10 11 12 12 12 13 13 14 14 14 14 15 15 15 15 16 16 16 16 17 18 19 19 20 21 22 22 23 25 27 28 29 30 30 30 30 30 27 26 25 24
18 17 16 14 14 12 11 10 10 11 11 11 12 12 12 13 13 13 13 13 13 13 14 14 15 15 15 16 17 18 18 19 19 20 20 21 22 24 25 27 28 30 29 29 29 28 28 26 25
19 18 16 14 12 11 11 10 10 11 11 12 12 12 12 12 12 12 12 12 11 11 12 12 13 14 15 16 16 16 17 17 18 19 20 20 20 21 23 25 26 27 28 29 28 28 28 27 25
20 17 16 14 12 11 10 10 11 11 11 12 12 11 11 11 11 11 10 10 10 10 10 11 12 13 14 15 15 15 15 15 16 17 18 18 19 20 21 23 24 25 26 27 28 26 27 28 27
20 18 15 13 12 11 11 10 11 11 11 12 12 11 10 10 10 9 8 8 8 8 9 10 12 13 13 14 15 15 14 14 15 15 15 16 18 19 20 21 22 24 24 25 27 26 26 26 26
20 18 16 14 13 12 11 11 12 12 12 12 12 11 10 9 8 7 7 7 7 7 8 10 11 12 13 14 15 15 15 14 13 13 13 14 15 15 17 18 19 20 22 23 24 26 26 26 25
18 16 15 14 13 12 11 12 12 12 12 13 12 11 10 8 7 6 6 5 5 7 8 9 11 12 14 15 15 15 16 15 13 12 12 12 12 12 13 14 16 18 19 20 22 24 25 25 24
16 14 14 13 13 13 13 13 13 13 13 13 12 11 9 7 6 5 4 4 5 6 8 9 11 12 13 15 15 16 16 16 14 13 12 11 11 10 10 11 13 15 17 18 20 21 23 25 25
16 14 13 13 13 13 13 14 14 13 13 12 11 10 9 7 6 5 3 3 4 5 7 9 11 12 13 14 15 16 16 16 15 14 12 11 11 9 8 8 10 12 14 16 18 19 20 22 24
14 13 13 13 13 13 13 14 14 14 13 12 11 10 8 7 6 5 3 2 3 5 7 8 10 12 13 14 15 16 16 16 16 14 13 12 10 9 7 6 7 9 12 14 15 17 18 20 23
13 13 12 13 12 12 13 14 15 14 13 12 11 10 8 7 6 5 4 2 3 4 6 8 10 11 12 14 15 15 16 17 16 15 14 12 10 9 7 5 4 5 8 12 13 14 16 17 20
14 13 12 12 12 12 12 13 15 14 13 12 11 10 8 7 6 6 5 3 3 4 6 8 9 11 12 13 14 15 16 16 16 15 14 13 11 9 7 5 3 2 4 8 10 13 15 16 18
14 13 13 12 12 12 12 12 15 14 13 12 11 10 9 8 7 6 5 4 3 4 6 8 9 11 12 13 14 15 16 16 16 16 14 13 12 10 8 7 4 2 2 4 7 10 12 14 17
14 14 13 12 12 12 12 12 14 14 13 12 11 10 9 8 7 7 6 4 3 4 5 7 9 11 12 13 14 15 16 16 16 16 15 13 12 11 9 8 6 4 1 2 4 7 10 12 15
14 13 12 11 12 12 13 13 12 13 13 12 11 10 9 9 8 7 6 5 4 4 6 7 9 11 12 13 14 14 15 15 16 16 15 14 12 11 10 8 7 5 3 1 1 4 6 9 11
13 12 12 11 12 13 13 13 11 12 12 11 10 10 10 9 9 8 7 6 4 4 6 7 9 11 12 13 14 14 14 14 15 15 15 14 12 11 10 9 8 6 5 3 2 2 4 6 9
11 11 11 12 13 13 13 13 12 12 12 11 11 11 11 10 9 8 7 6 5 5 6 7 9 11 12 13 13 13 13 13 14 14 14 13 12 11 10 9 8 7 6 4 3 2 2 4 7
11 11 12 13 13 14 14 13 13 13 12 12 11 12 11 11 10 9 8 7 6 5 6 8 9 11 12 12 12 12 12 13 13 14 14 13 12 11 11 10 9 8 7 6 4 4 3 4 5
11 12 13 14 14 14 13 12 13 14 13 12 12 12 13 12 11 10 9 8 7 6 7 8 9 10 11 12 12 11 12 12 12 13 13 13 12 11 11 11 10 9 8 7 6 5 4 4 4
12 13 14 14 15 14 13 13 14 15 14 13 13 14 14 14 13 11 10 9 8 7 7 8 8 9 11 11 11 11 12 12 12 12 12 12 12 11 11 10 10 10 9 8 7 6 6 5 5
13 13 14 15 15 15 14 12 15 15 14 14 14 15 15 15 14 13 11 10 9 8 7 7 8 9 10 10 11 11 11 12 12 11 11 12 12 11 11 10 10 10 9 8 8 7 6 6 6
15 16 16 17 17 16 16 13 15 15 15 15 16 16 16 16 15 14 13 12 10 9 8 8 8 8 9 10 10 10 11 11 11 11 11 12 12 12 11 11 10 10 9 9 9 8 7 6 6

GEFSSGP_500_meanwind_090.txt.gz
Wind_Speed
6 5 5 4 4 3 1 1 1 3 4 5 7 8 7 8 9 10 11 12 13 13 14 15 16 17 18 18 19 19 20 20 20 20 20 20 20 20 20 20 20 21 21 21 21 20 20 19 18
7 6 6 5 4 3 2 1 2 3 5 6 8 9 9 10 11 12 13 14 14 14 15 17 18 18 19 20 21 21 22 22 23 23 23 23 23 22 22 23 22 22 22 22 22 22 21 20 19
8 7 6 6 6 4 4 3 4 5 7 8 9 10 11 11 12 13 14 15 15 16 17 18 19 19 20 21 22 22 23 23 24 25 24 25 25 25 24 25 25 25 24 24 23 24 23 22 21
9 8 7 7 7 6 5 4 5 7 8 10 11 11 11 13 13 14 15 16 16 17 18 19 20 20 20 21 21 22 22 23 24 25 25 26 26 27 27 27 28 27 26 26 25 24 24 23 23
10 10 9 9 8 7 7 7 8 9 10 12 12 12 12 14 14 14 15 16 17 17 18 19 19 19 20 20 20 20 21 21 22 23 24 25 25 27 27 28 28 29 29 29 28 26 25 25 24
13 11 10 10 11 8 7 8 10 12 12 13 14 13 13 14 14 14 15 16 17 18 18 17 18 18 18 18 18 19 19 20 20 21 22 23 24 26 27 27 27 29 29 29 29 29 27 26 25
15 13 12 12 12 10 9 9 10 12 12 13 13 13 13 14 14 14 16 16 16 17 17 16 16 16 17 17 17 17 18 18 19 20 21 22 23 24 25 27 27 28 30 30 29 29 29 27 27
17 15 15 14 14 12 10 10 12 13 12 13 13 13 13 13 14 14 15 15 16 16 15 15 14 14 14 15 16 16 17 17 18 18 19 20 20 22 23 24 26 27 29 29 29 29 30 29 27
19 17 15 14 13 11 10 11 11 12 13 13 13 13 13 13 14 14 14 15 14 14 13 13 13 14 14 14 15 16 16 17 17 18 18 19 19 20 21 22 24 26 27 28 29 30 30 30 29
20 18 17 13 13 12 11 12 12 12 13 13 12 12 13 13 13 14 14 13 12 12 12 12 13 14 14 15 15 16 17 17 17 17 18 18 19 19 20 21 22 23 24 26 27 28 29 29 29
22 21 19 16 14 13 13 13 13 13 13 13 13 12 12 12 13 14 14 12 11 11 11 12 12 13 14 15 16 16 17 18 18 18 18 18 19 19 19 19 20 21 22 23 25 26 27 27 29
22 22 19 16 14 13 12 12 12 13 14 14 13 12 13 13 13 13 12 11 10 10 10 11 12 13 14 15 16 17 18 18 19 19 19 18 18 18 18 18 18 19 20 21 23 24 25 26 27
20 19 18 15 13 14 13 12 12 12 12 13 13 13 13 13 13 12 11 10 10 9 10 11 12 13 14 16 17 17 18 19 19 20 19 19 18 17 17 17 17 18 18 20 21 22 23 24 25
19 16 14 13 13 13 13 13 12 12 12 13 13 13 13 12 12 11 10 9 9 9 10 11 12 13 15 16 17 18 19 19 20 20 20 19 17 16 16 16 16 17 17 18 20 21 22 23 24
17 14 11 11 12 12 13 13 13 12 13 14 14 13 13 12 12 10 9 9 8 9 10 11 12 14 15 17 18 19 19 20 20 21 20 19 17 16 15 15 15 14 15 15 17 19 20 22 23
14 12 12 11 11 11 12 13 13 12 13 14 14 14 12 12 12 10 9 9 8 9 10 11 12 14 16 17 18 19 20 20 21 21 20 19 18 16 15 14 14 13 12 13 14 15 17 19 21
14 12 11 10 9 10 11 13 13 12 13 14 15 15 13 12 11 10 9 9 8 9 9 11 12 14 16 17 18 19 20 21 21 21 20 19 17 16 15 14 12 11 10 11 13 14 16 17 19
12 10 11 11 10 9 11 13 13 13 12 14 14 14 13 12 11 10 9 8 8 9 9 11 12 14 16 17 18 19 20 20 21 21 20 19 17 15 14 13 11 10 8 8 10 12 15 16 17
13 11 10 11 11 10 11 12 13 14 13 13 14 13 13 12 11 10 9 9 8 9 9 11 12 14 16 17 18 19 20 20 21 21 20 19 17 15 13 12 10 9 7 5 6 9 12 13 14
10 10 13 13 10 9 9 11 12 14 14 13 13 13 12 12 11 10 9 9 8 8 9 10 12 14 16 17 18 19 19 20 20 20 19 18 17 15 13 11 10 8 6 4 4 6 8 10 12
12 12 12 10 7 8 10 10 12 14 14 14 13 13 13 12 11 10 9 9 8 8 9 10 12 14 16 17 18 18 19 19 19 19 19 17 16 15 13 11 10 9 6 4 2 3 6 7 9
13 12 9 8 8 8 9 11 12 14 14 14 13 13 13 12 12 10 9 9 9 9 9 10 12 14 16 17 18 18 18 18 18 18 18 17 15 14 13 12 11 9 7 4 2 1 3 5 7
11 8 7 7 8 8 9 11 12 16 16 14 14 12 12 12 11 11 10 9 9 9 9 10 12 14 16 17 18 17 17 17 17 17 17 16 15 13 12 11 10 9 7 5 3 1 1 3 5
8 6 6 6 6 7 9 11 11 16 17 16 16 14 12 11 11 11 10 10 10 9 9 10 11 13 15 16 17 16 16 16 16 16 16 16 15 13 11 10 9 8 7 6 4 2 1 1 4
7 6 4 4 4 5 9 14 15 18 17 16 16 15 13 12 12 11 11 11 10 9 9 10 11 13 14 15 16 16 15 15 15 15 16 15 15 13 12 10 9 8 7 5 4 3 3 2 2
7 6 6 7 6 8 10 12 17 21 18 16 15 15 14 12 12 12 11 11 11 10 10 10 11 12 13 14 15 15 15 15 15 15 14 14 14 13 12 11 10 9 7 6 5 4 3 2 2
7 7 9 10 9 9 8 11 18 22 18 16 15 15 15 14 13 13 12 12 11 11 10 10 11 11 13 13 14 14 14 15 15 15 14 14 14 13 12 11 10 9 8 7 6 5 4 3 2
9 10 11 11 11 11 9 10 15 23 22 20 18 16 15 15 14 13 13 13 12 12 11 11 11 11 12 13 13 13 14 14 14 14 14 14 14 13 12 11 10 9 8 8 7 6 5 4 3
10 11 12 12 13 13 14 14 19 24 23 21 19 17 16 15 15 15 14 14 13 13 12 12 11 11 12 12 12 13 13 14 14 14 14 14 14 14 13 11 11 10 9 8 7 6 5 5 4
12 13 14 16 15 16 18 16 20 24 24 22 19 18 17 16 15 15 15 15 15 14 13 13 12 12 12 12 12 12 13 13 13 14 14 14 14 14 13 12 11 10 9 8 8 7 6 5 4

GEFSSGP_500_meanwind_096.txt.gz
Wind_Speed
4 4 4 4 3 2 2 5 5 4 4 2 0 2 4 5 6 6 8 9 10 11 12 13 14 15 15 16 17 18 19 20 20 21 21 22 22 23 23 23 23 24 23 23 22 22 22 22 21
5 5 5 5 4 2 3 4 4 3 3 1 1 3 5 6 7 7 9 10 11 12 13 14 14 15 16 17 17 18 19 20 21 21 22 22 23 23 24 24 25 26 26 26 24 24 23 23 23
7 6 6 5 5 3 3 4 3 2 1 1 2 4 6 7 8 8 9 11 11 12 13 14 15 15 16 17 17 18 18 19 19 20 21 22 22 23 24 25 26 26 27 27 26 25 25 24 23
8 7 7 7 6 5 4 2 2 1 1 3 4 5 7 8 9 9 9 10 11 12 12 14 14 14 15 15 16 16 17 17 17 18 18 20 21 22 23 24 24 25 27 28 28 27 27 26 24
10 9 9 9 7 6 6 3 3 1 2 4 5 7 8 9 9 9 9 10 11 12 13 13 12 12 13 13 14 14 15 15 15 16 17 18 19 20 21 23 23 24 25 27 28 29 28 28 26
12 11 10 10 9 7 5 4 3 2 3 5 6 7 8 8 9 8 8 8 10 12 12 12 11 11 11 12 12 13 13 14 14 15 16 17 18 19 20 21 22 23 24 25 26 28 28 28 28
14 12 12 11 11 9 8 5 4 5 5 6 7 8 9 9 9 9 8 9 10 11 11 11 11 11 11 11 12 12 13 13 14 15 16 16 17 18 19 20 22 23 23 24 25 27 27 28 28
15 15 14 13 12 11 9 7 5 4 5 6 8 8 9 9 9 8 8 9 10 10 10 10 10 10 10 11 11 12 13 14 15 15 16 17 17 18 18 19 21 22 23 24 25 27 27 27 28
18 17 16 14 13 11 8 7 5 5 5 7 8 9 9 8 8 8 9 10 10 9 9 8 8 9 10 10 11 12 13 14 15 16 17 17 18 18 18 19 19 20 21 23 24 26 27 27 27
19 19 18 16 14 11 9 6 5 4 6 7 9 9 8 8 8 9 10 10 10 9 8 7 7 8 9 10 11 13 14 15 16 17 18 18 18 19 19 19 19 19 20 21 23 24 26 26 27
20 20 18 17 15 12 9 6 5 5 6 7 8 8 8 8 8 8 10 10 9 8 7 7 7 8 9 11 12 13 15 16 17 18 19 19 19 19 19 19 18 19 19 19 20 22 24 25 26
21 20 18 16 13 10 8 6 5 5 6 6 7 9 9 9 8 8 9 9 8 7 6 7 8 9 10 12 14 15 16 17 18 19 19 20 20 20 19 18 17 17 17 18 19 20 22 23 25
22 20 18 14 11 10 8 7 6 6 6 7 8 9 9 9 8 8 8 8 8 7 7 8 9 10 11 13 15 16 17 18 18 19 20 20 20 20 19 17 16 16 16 16 17 19 21 21 23
21 19 16 12 10 9 8 6 4 5 6 7 8 9 10 9 8 8 7 7 7 7 8 8 9 10 12 14 15 16 17 18 19 20 20 20 20 20 19 17 16 15 14 14 15 16 19 20 21
18 16 14 12 9 7 7 5 3 4 5 6 7 8 8 9 8 7 7 7 7 7 7 8 9 10 12 14 16 17 18 19 19 20 20 20 20 20 19 17 16 14 13 13 14 15 17 20 20
15 13 11 8 6 5 5 4 3 4 4 5 6 7 7 8 7 7 7 7 6 7 7 8 9 11 13 14 16 17 18 19 19 19 20 20 20 20 19 17 15 13 12 11 12 14 16 19 20
13 12 9 7 5 4 3 2 2 3 4 5 5 6 7 8 7 7 7 6 6 7 7 8 9 11 13 15 17 18 18 19 19 19 20 20 20 19 18 16 14 12 10 10 10 12 14 17 18
11 10 9 7 5 3 1 0 1 3 4 5 5 6 6 7 7 6 6 6 6 7 7 8 9 11 13 15 17 18 18 19 19 19 19 20 19 19 17 15 13 12 10 8 8 9 12 15 17
8 7 6 5 3 1 1 1 2 4 4 5 5 6 6 7 6 6 6 6 6 6 7 8 9 10 13 15 17 18 18 18 18 18 19 19 19 18 17 15 13 11 9 8 6 7 9 12 15
7 7 5 4 3 2 1 2 3 4 4 5 6 6 6 6 6 6 7 7 6 6 7 8 9 10 13 15 17 18 17 17 18 18 18 18 19 18 16 16 13 11 9 7 5 3 6 10 12
8 6 6 4 3 2 1 1 2 3 4 5 6 7 8 8 6 6 7 7 6 6 7 7 8 10 12 14 16 17 17 16 17 17 18 18 18 17 16 16 13 10 8 6 3 1 3 7 10
8 7 5 4 3 2 1 2 3 4 5 6 7 8 9 9 7 6 7 7 7 6 7 7 8 9 12 14 15 16 16 16 17 17 17 17 17 17 16 15 13 11 9 6 4 1 2 5 7
9 7 5 3 2 1 2 3 5 6 7 8 9 10 10 9 8 6 6 7 7 7 7 7 8 9 11 13 14 15 15 15 16 17 17 17 17 16 15 14 12 10 8 6 4 2 1 4 6
7 5 3 1 1 1 2 4 6 7 9 10 10 11 11 10 8 7 7 7 7 7 7 7 8 9 10 12 13 14 14 15 16 16 16 16 16 16 15 13 11 10 8 7 5 4 2 4 6
6 4 3 2 2 2 3 5 7 9 10 11 12 12 11 10 9 8 8 8 7 7 7 8 8 8 9 11 12 13 13 14 15 16 16 15 15 15 15 14 11 10 8 7 5 4 3 3 5
4 3 2 2 2 3 5 7 9 10 11 13 13 12 11 10 9 9 9 8 8 8 8 8 8 8 9 10 11 12 13 13 14 15 15 14 15 15 14 13 12 10 8 6 5 4 3 2 3
3 1 1 2 3 5 6 8 10 12 14 15 15 13 12 11 10 9 9 9 9 9 9 9 9 9 9 9 10 11 12 12 13 14 14 14 14 14 13 12 11 10 8 6 5 4 3 1 1
1 1 2 3 5 6 7 10 12 15 16 16 16 15 13 11 10 10 10 10 11 11 10 10 10 10 9 9 9 10 11 11 12 13 13 13 13 13 13 12 11 10 9 7 6 4 3 1 1
0 2 4 5 6 7 8 9 13 15 16 17 16 15 13 11 11 11 11 12 12 12 12 12 11 11 11 10 9 10 10 10 11 11 12 12 12 12 12 12 11 10 9 8 6 5 3 2 1
2 3 5 6 7 9 9 9 12 14 15 16 16 15 14 12 11 11 11 12 13 14 14 14 13 13 12 11 10 10 10 10 10 10 11 11 11 11 12 11 11 10 9 8 6 5 3 2 1

GEFSSGP_500_meanwind_102.txt.gz
Wind_Speed
6 4 3 3 2 2 1 2 3 5 4 4 4 3 4 3 4 5 6 7 7 8 9 10 11 12 13 14 14 15 16 16 16 16 17 17 17 18 18 18 19 19 20 20 20 20 19 18 18
6 5 4 4 3 2 1 2 4 5 4 4 3 2 2 3 4 5 6 7 8 8 9 10 11 11 12 12 14 14 15 15 15 15 15 16 16 17 17 18 18 19 19 20 21 21 21 21 19
7 6 5 5 3 2 0 1 3 4 4 4 3 2 3 4 5 6 7 8 8 9 9 10 10 11 12 12 13 13 14 14 13 14 14 15 15 16 16 17 18 18 19 20 21 21 22 21 21
9 7 7 5 4 2 1 1 2 4 4 4 3 2 4 5 5 6 7 8 8 8 9 10 10 11 11 12 12 12 12 12 12 13 13 14 15 15 16 17 17 18 19 20 21 21 22 21 21
11 9 8 6 4 3 2 2 2 4 3 4 3 3 4 5 5 6 6 7 7 8 9 10 10 10 11 11 11 11 11 11 12 12 13 14 14 15 16 17 17 18 19 20 21 21 21 22 22
13 11 9 7 5 4 4 3 4 3 3 4 3 4 4 5 5 6 6 7 8 9 9 9 9 9 10 10 10 11 11 12 12 13 13 14 15 15 16 17 17 18 19 20 21 21 22 22 22
15 13 11 8 7 6 5 5 5 5 5 5 4 3 4 5 5 6 7 8 9 9 9 9 8 8 9 9 10 10 11 12 13 14 14 15 16 16 16 16 17 17 18 19 20 21 22 22 23
16 15 12 10 8 7 6 5 6 7 6 6 5 4 4 4 5 6 7 8 9 9 9 8 7 7 8 9 10 10 11 12 13 14 15 16 17 17 16 17 17 17 18 18 19 20 21 22 23
18 16 13 11 10 9 8 7 6 6 6 5 4 4 4 5 6 6 7 8 8 9 8 8 8 8 8 9 10 11 12 13 14 15 16 17 17 17 17 17 17 18 18 18 18 19 21 22 22
19 17 15 14 12 10 9 9 9 8 7 6 5 4 5 5 6 6 7 7 8 8 7 8 7 8 8 9 11 12 13 14 15 16 17 17 17 17 17 17 18 18 18 18 18 19 20 21 22
20 18 17 14 13 11 10 10 11 11 8 6 5 4 4 5 6 7 7 7 7 7 7 7 7 8 9 10 11 13 14 15 16 17 17 17 17 17 17 18 18 18 18 18 18 19 19 20 21
20 19 17 15 14 13 12 12 11 11 9 7 6 4 4 6 7 7 7 7 7 7 6 7 7 8 9 10 11 13 14 15 16 17 17 17 17 17 18 18 18 18 18 18 18 18 19 19 20
20 18 16 15 14 13 13 12 11 9 10 8 6 5 6 7 7 8 8 7 7 7 7 7 8 8 9 10 12 13 14 16 17 17 17 17 18 18 18 18 18 18 18 18 17 17 18 19 19
19 17 16 14 14 12 11 8 8 8 8 7 6 6 7 7 8 8 8 7 7 7 7 7 8 8 9 10 12 13 15 16 17 17 17 17 18 18 18 18 18 18 17 17 16 16 16 18 19
18 15 13 13 11 9 7 6 6 6 6 6 6 7 8 8 9 8 7 7 7 7 7 7 7 8 9 10 12 13 15 16 17 16 17 17 18 18 18 18 18 18 17 16 15 15 15 16 18
17 14 11 10 8 7 5 5 4 4 5 5 6 7 8 8 9 8 8 8 8 8 7 7 7 7 8 10 12 13 15 16 17 16 17 18 18 18 18 18 18 17 17 15 14 14 14 14 16
16 14 11 9 8 6 5 4 4 4 4 5 6 7 8 8 8 8 8 8 8 8 8 7 7 7 8 10 12 14 15 16 16 17 17 18 18 18 18 18 18 17 16 15 13 12 12 12 14
15 13 12 10 8 6 5 4 3 4 4 5 7 7 8 8 8 8 8 8 8 9 8 7 7 7 8 10 12 14 15 16 16 17 17 18 18 18 18 18 17 17 15 14 12 10 10 10 11
15 14 13 11 9 6 5 4 4 4 5 6 6 7 7 8 8 8 8 8 8 9 8 7 7 7 8 10 12 13 14 16 16 17 18 18 18 18 18 18 17 16 15 13 10 8 8 8 9
13 13 12 11 8 7 6 5 4 3 4 5 5 6 7 7 8 8 8 8 8 8 8 7 6 7 8 9 11 13 14 15 16 17 18 18 18 18 18 17 16 15 14 12 9 7 6 7 8
14 13 13 11 9 7 6 5 3 2 3 4 5 6 6 7 7 7 8 8 8 8 8 7 6 7 8 9 11 12 14 15 16 17 18 18 18 17 18 17 15 14 13 11 9 7 4 4 6
15 14 14 11 10 8 7 5 3 2 3 4 5 6 6 7 7 7 8 8 8 8 8 7 6 7 8 9 10 12 13 15 16 17 18 18 18 17 17 17 15 14 12 11 9 6 4 2 4
15 14 13 11 10 8 6 4 1 2 4 5 6 6 7 7 7 7 7 7 8 8 8 7 7 7 8 9 9 11 12 14 16 17 18 18 18 17 16 16 15 13 12 10 8 6 3 2 2
14 13 12 10 8 7 4 2 2 3 5 6 6 6 7 7 7 7 7 8 8 8 8 8 8 8 8 9 9 10 12 14 15 16 17 18 18 17 16 16 14 13 11 9 7 6 3 1 1
13 12 11 9 7 5 3 2 3 4 6 6 6 6 7 8 8 8 8 8 8 8 8 8 9 9 9 9 9 10 11 13 15 15 17 17 17 16 15 15 14 12 11 10 8 6 4 1 1
11 10 8 7 5 4 3 3 4 5 7 7 7 7 8 9 10 9 10 9 9 9 9 9 9 10 10 10 10 10 11 12 14 15 16 16 16 16 15 15 14 12 11 10 8 6 4 2 0
9 8 6 5 3 3 3 4 5 6 7 8 8 8 9 9 10 10 10 10 10 10 10 10 10 11 11 11 11 11 12 13 13 14 15 15 15 15 15 14 14 12 11 9 8 6 4 3 1
8 6 5 4 3 3 4 5 6 7 8 8 9 9 9 10 10 11 11 11 12 12 12 12 12 12 12 12 12 12 12 13 13 14 14 14 14 14 14 13 13 12 11 9 7 6 5 3 2
5 4 3 2 3 4 5 6 7 7 8 9 10 10 10 11 11 12 12 12 13 13 14 14 14 14 14 14 14 14 13 13 14 14 14 14 13 13 13 13 12 11 10 8 7 5 4 3 1
3 2 1 2 3 4 5 5 7 7 8 9 10 11 11 12 13 13 13 14 14 14 14 15 16 16 16 16 16 16 15 15 15 15 15 14 13 13 12 12 11 11 10 8 6 5 4 3 1

GEFSSGP_500_meanwind_108.txt.gz
Wind_Speed
4 3 3 2 2 3 4 4 4 5 7 7 7 7 7 6 5 5 4 5 5 5 6 6 6 7 7 8 9 10 11 11 10 10 10 10 10 11 11 11 12 13 13 14 14 14 15 15 15
6 4 3 3 3 3 4 4 5 5 6 6 6 6 6 6 5 5 4 4 5 5 6 6 6 7 7 8 9 10 10 10 10 10 9 9 9 10 11 12 12 13 13 13 14 15 14 15 16
7 5 4 3 3 3 4 4 5 5 5 5 5 5 5 5 5 4 4 4 4 5 5 6 6 7 8 9 9 9 9 9 9 9 9 10 10 10 11 12 13 13 14 14 15 15 15 15 16
8 6 5 4 4 3 4 5 5 5 4 4 4 4 5 5 4 4 4 4 4 5 5 6 7 7 8 8 8 8 8 8 9 9 10 11 11 12 12 13 13 14 14 15 15 16 16 16 16
10 8 5 5 4 4 5 5 4 5 4 4 4 4 4 5 5 4 4 4 5 5 6 6 7 7 8 8 7 7 8 9 9 10 11 12 13 13 14 14 14 14 15 15 15 16 16 16 17
11 9 8 6 5 5 5 4 4 4 3 4 4 4 5 5 5 5 5 5 5 5 6 7 7 7 7 7 7 8 9 10 10 11 12 13 14 14 15 15 15 15 15 15 15 15 15 16 17
13 11 10 8 7 5 5 4 4 4 3 4 4 5 6 6 5 5 5 5 6 6 6 7 7 6 6 7 7 8 9 10 11 12 13 14 15 15 15 15 16 16 16 16 15 15 15 15 16
16 14 12 10 8 7 6 5 5 4 3 4 6 6 6 6 6 5 5 6 6 6 6 6 6 6 6 7 8 9 10 11 12 13 14 15 15 15 16 16 15 16 16 16 16 16 15 15 16
17 15 14 11 9 8 7 6 5 6 6 6 6 6 6 6 6 6 6 6 7 6 6 6 6 6 7 7 8 10 11 12 13 13 14 15 15 16 16 16 16 16 16 17 17 17 16 16 16
19 16 14 13 11 8 7 6 5 6 6 6 6 7 7 7 7 7 7 7 7 7 7 7 7 7 7 8 9 10 12 13 13 14 15 15 16 16 16 16 17 17 17 17 17 17 17 17 17
20 17 15 13 12 10 8 7 6 5 6 7 7 7 7 7 7 7 8 8 7 7 8 8 7 8 8 9 10 11 13 14 14 15 15 16 16 16 16 17 17 17 17 17 17 18 18 18 18
20 18 16 14 12 10 9 8 8 7 7 7 7 7 8 8 7 7 8 8 8 8 8 8 8 8 9 10 11 12 13 14 15 15 15 16 16 16 16 17 17 17 17 17 18 18 17 18 18
22 19 17 15 12 11 9 9 9 9 8 8 8 9 8 8 8 8 8 9 9 8 9 9 9 9 9 10 11 12 13 14 15 15 15 15 16 16 17 17 17 17 17 18 18 17 17 17 18
22 19 18 15 13 11 10 9 8 8 9 8 8 7 7 7 7 8 8 8 8 9 9 9 9 10 10 11 12 13 13 14 14 15 15 16 16 16 17 17 18 17 17 18 18 17 17 16 16
22 20 17 16 14 12 10 9 9 8 8 8 7 6 7 7 8 8 9 9 9 9 10 10 10 10 11 11 12 12 13 14 15 15 16 16 17 17 17 17 18 17 18 18 18 17 16 15 15
21 19 17 15 13 12 11 10 7 7 6 5 6 7 7 7 8 8 9 9 9 10 10 10 10 11 11 11 11 12 13 14 15 15 16 17 17 17 17 17 18 18 18 18 17 16 15 15 15
21 18 16 14 11 11 9 8 6 6 5 4 5 6 6 7 8 8 8 9 9 10 10 10 10 11 11 11 12 12 13 14 15 15 16 17 18 18 17 18 18 18 19 18 16 15 14 13 13
21 18 16 14 12 10 9 7 6 6 5 4 4 5 6 7 8 8 8 9 10 10 10 10 10 11 11 11 11 12 13 14 15 15 16 17 18 18 18 18 18 19 19 17 14 13 12 11 11
21 19 16 14 12 11 9 8 7 6 4 4 4 5 6 7 8 8 9 9 10 10 10 10 10 11 11 11 11 12 13 14 14 15 16 17 19 19 19 18 19 18 18 16 13 11 10 9 9
20 19 17 15 13 11 9 8 6 4 3 3 4 5 7 7 8 8 9 10 10 9 10 10 10 10 11 11 11 12 12 13 14 15 16 17 19 20 20 18 18 18 17 15 13 11 9 7 7
19 19 17 15 13 10 9 7 6 4 3 3 4 6 7 7 7 8 9 9 9 9 9 10 10 10 10 11 11 12 12 13 14 15 16 17 19 20 20 19 18 17 16 15 13 10 8 6 5
20 18 17 15 13 11 9 7 6 3 2 3 4 5 6 7 7 8 9 9 9 9 9 10 10 10 10 11 11 12 12 13 14 15 16 17 19 20 20 19 18 17 16 15 12 9 7 5 4
20 18 17 15 12 11 9 7 5 3 2 3 4 4 5 6 7 8 8 9 9 9 9 10 10 10 10 11 12 12 13 13 14 15 16 17 18 19 20 19 18 17 17 15 12 9 6 4 2
19 17 15 14 13 11 9 6 4 3 3 3 4 5 6 6 7 8 8 8 9 9 9 9 9 10 10 11 12 13 14 14 15 15 16 17 18 19 19 19 18 18 17 15 12 9 7 4 2
18 17 16 15 13 11 8 7 5 4 3 3 4 5 5 6 7 8 8 8 9 9 9 9 9 10 11 12 12 13 14 15 15 16 16 17 18 18 19 19 18 17 17 15 12 9 7 5 2
17 16 15 13 12 10 8 7 5 3 3 3 4 5 6 6 7 8 8 8 9 9 9 9 10 11 12 13 13 14 14 15 16 16 16 17 17 18 18 18 17 16 16 15 12 10 7 6 3
16 14 13 12 11 9 8 6 4 3 3 3 4 5 6 6 7 7 8 8 9 9 10 10 10 11 13 13 14 15 15 16 16 16 16 17 17 17 17 17 17 16 15 14 13 10 8 6 4
13 13 13 12 11 9 7 5 4 4 3 3 4 4 5 6 7 7 8 8 9 9 10 10 11 12 13 14 15 15 16 16 16 17 17 17 17 17 17 17 16 16 15 14 13 11 8 7 5
13 12 11 11 10 8 7 6 5 3 3 3 3 4 5 5 6 7 8 9 9 10 10 11 12 13 14 14 15 16 17 17 17 17 17 17 17 17 17 17 16 16 15 14 12 11 10 8 6
12 11 10 10 9 8 7 6 5 4 3 3 3 3 4 5 6 7 8 9 10 10 11 12 13 14 15 16 17 17 18 18 18 19 19 18 18 18 18 17 17 16 15 14 12 11 10 9 7

GEFSSGP_500_meanwind_114.txt.gz
Wind_Speed
4 4 3 2 2 3 3 3 3 4 5 6 7 6 6 5 5 5 5 5 5 6 8 8 8 8 8 9 10 10 9 9 9 10 10 10 10 11 11 11 12 12 12 12 12 13 13 14 14
6 4 4 3 2 3 3 4 4 4 4 5 5 5 5 5 5 5 5 6 6 7 8 8 8 9 9 10 10 10 10 10 9 10 10 10 11 11 12 12 13 12 13 13 13 14 14 14 14
7 5 4 5 4 3 4 4 4 4 4 4 4 4 4 5 5 6 6 6 6 7 8 8 9 9 9 9 10 10 10 10 10 10 11 11 12 12 13 13 13 13 13 14 13 13 13 14 15
8 7 6 5 4 4 4 3 4 4 4 4 3 3 4 5 6 6 7 7 7 8 9 9 9 9 9 9 10 10 9 9 10 11 12 12 13 13 13 13 13 14 14 14 14 14 14 14 15
11 9 8 7 6 5 4 4 4 4 5 4 3 2 3 4 5 6 7 8 8 8 9 9 10 10 9 9 10 10 10 9 11 12 13 13 13 14 14 14 14 14 14 14 14 14 14 14 14
13 11 9 8 7 5 5 5 4 4 5 4 3 2 4 5 5 6 7 8 8 9 10 10 10 10 9 9 10 10 10 11 12 13 13 13 14 14 14 14 15 15 14 14 14 14 14 13 14
14 13 11 10 8 7 6 5 5 5 4 4 4 3 5 5 6 6 7 8 9 9 9 10 10 9 9 9 10 10 11 12 13 14 14 14 15 15 15 15 15 15 15 14 14 14 14 13 13
17 15 13 11 10 8 7 6 6 5 4 4 4 4 5 6 6 7 8 9 9 10 9 9 9 9 9 10 10 11 12 13 14 14 15 15 16 16 16 16 16 15 15 15 14 14 14 14 13
19 17 16 14 11 9 8 7 6 6 5 5 5 4 5 6 7 7 8 8 9 10 10 10 9 9 9 9 10 11 12 13 14 15 16 16 16 16 16 16 16 16 16 15 15 14 14 14 14
20 18 17 14 11 8 7 7 6 6 6 5 5 5 5 6 7 7 8 8 9 9 10 10 10 9 10 10 10 11 12 13 14 15 16 17 17 17 17 17 17 17 16 16 15 15 15 15 15
21 19 18 15 12 9 7 7 6 6 6 5 4 5 6 6 7 7 8 8 9 9 10 10 10 10 10 11 11 12 13 14 15 16 17 17 17 17 17 17 17 17 17 17 16 16 15 15 15
21 19 18 15 13 11 9 8 8 7 6 5 5 5 6 7 8 8 8 8 9 9 10 10 10 10 10 11 12 13 14 15 16 17 17 17 18 18 18 18 18 18 17 17 17 17 16 16 15
21 20 18 15 14 12 11 10 8 7 6 6 6 6 7 7 8 8 8 8 9 9 10 10 10 10 11 11 12 13 14 15 16 17 17 18 19 19 19 19 18 18 17 17 17 17 17 17 16
21 20 19 17 14 13 11 10 9 7 7 7 7 7 7 8 8 8 8 8 8 9 9 9 10 10 11 11 12 13 14 15 16 17 17 18 19 20 20 19 18 18 17 18 18 18 17 16 16
22 21 19 17 15 13 11 10 8 7 7 7 7 7 7 7 7 7 7 8 8 9 10 9 10 10 11 12 12 13 14 15 16 17 18 18 19 20 20 19 19 18 18 19 19 18 16 15 15
22 21 20 17 15 13 11 10 8 6 6 6 5 5 5 6 6 7 7 7 8 9 9 10 10 11 11 12 12 13 14 15 16 17 18 19 19 20 20 20 20 19 19 19 19 18 16 14 14
22 20 19 17 15 12 11 8 6 5 5 5 5 4 4 4 5 6 7 7 8 9 9 10 10 11 11 12 13 13 14 15 16 17 18 19 20 20 20 20 21 21 20 19 18 17 16 14 13
21 19 17 15 13 12 11 8 6 5 5 4 4 4 4 4 4 6 7 8 8 8 9 9 10 11 11 12 12 13 14 15 16 17 18 19 19 20 21 21 22 21 21 20 18 17 15 14 12
19 18 16 15 12 11 10 8 6 5 4 3 2 3 3 4 4 5 6 7 7 8 9 9 10 10 11 11 12 12 13 14 15 16 17 19 19 20 21 22 22 22 21 21 19 16 15 13 11
22 20 16 14 12 11 9 7 6 5 4 3 2 3 3 3 4 5 6 7 8 8 9 9 9 9 10 10 11 12 13 14 15 16 17 19 19 19 20 22 22 22 22 21 19 17 14 13 11
20 18 16 14 12 9 7 6 6 6 4 3 2 2 2 3 4 4 5 7 8 8 8 8 8 9 10 10 11 12 13 14 15 16 17 19 19 20 21 22 22 21 22 21 20 17 14 12 10
21 19 15 12 11 8 6 6 5 3 3 2 1 1 1 2 3 4 5 5 6 7 7 8 8 9 10 10 12 12 13 14 15 16 17 18 19 20 21 22 22 22 22 22 20 18 15 12 9
21 19 15 13 11 9 6 4 4 3 3 2 1 1 1 2 3 3 4 5 6 6 7 8 8 9 10 10 11 13 14 15 16 16 17 18 18 19 20 21 21 21 22 21 20 18 15 12 9
20 19 17 15 14 11 9 6 5 4 4 3 2 1 1 2 2 3 4 5 6 6 7 7 8 9 10 11 12 13 14 15 16 17 17 18 18 19 20 21 21 21 21 21 20 18 16 13 10
21 20 18 18 15 13 10 10 9 7 6 5 4 2 2 2 2 3 4 4 5 6 6 6 7 9 10 11 12 13 14 15 16 17 18 19 19 19 19 20 20 20 20 20 19 18 16 14 11
20 20 18 16 14 12 10 12 9 7 7 6 4 3 2 2 3 3 3 4 4 5 5 6 7 8 10 11 12 13 14 15 16 17 18 19 20 20 20 20 20 20 19 19 18 17 16 14 13
22 19 17 13 13 11 11 11 8 8 8 6 5 4 3 3 2 3 3 4 4 5 5 6 7 8 10 11 13 14 15 16 17 18 19 20 20 20 20 20 20 20 19 18 18 17 16 14 12
21 19 14 12 13 11 10 10 8 8 8 6 5 4 4 3 2 2 3 3 4 5 5 6 7 9 10 12 13 15 16 17 18 19 20 21 21 21 21 21 20 20 19 18 17 16 16 15 13
19 17 15 12 11 10 10 11 9 7 7 6 5 4 4 3 2 2 3 3 4 5 6 7 8 9 11 12 14 15 16 17 18 19 21 21 21 21 21 21 21 21 20 19 18 16 15 14 13
18 16 15 13 13 14 13 13 11 8 7 6 5 4 3 2 2 1 2 3 4 5 6 7 8 10 11 13 14 15 17 18 19 20 21 22 22 22 22 22 22 21 21 20 19 18 16 15 14

GEFSSGP_500_meanwind_120.txt.gz
Wind_Speed
6 4 3 2 3 4 4 4 4 6 6 5 4 4 4 3 2 2 2 1 2 3 4 6 6 7 8 8 8 8 8 9 9 9 9 9 10 10 10 10 11 11 11 11 11 12 13 13 14
7 5 5 4 4 3 4 3 5 7 7 6 5 4 4 3 2 2 2 2 3 4 5 6 6 6 7 8 8 8 8 9 9 9 9 10 10 10 10 11 11 11 12 12 12 12 12 13 13
9 8 6 6 5 4 3 4 5 7 7 6 5 4 3 3 2 2 2 3 3 4 5 6 6 7 7 8 8 8 8 8 8 9 9 9 10 11 11 11 11 12 12 12 13 13 13 13 13
11 10 9 7 6 6 4 5 6 7 7 6 5 4 3 3 2 2 2 2 3 4 5 6 6 7 7 7 7 7 7 8 8 9 10 10 10 11 11 11 11 12 12 13 13 13 13 13 14
13 12 11 9 7 6 5 5 6 7 6 6 5 4 3 2 2 1 1 2 3 4 6 6 6 7 7 7 7 7 7 8 8 9 10 10 11 11 11 12 12 12 13 13 13 13 13 13 13
15 14 13 11 9 7 6 6 6 6 6 6 5 4 3 2 1 1 1 3 4 5 5 6 6 7 7 7 7 7 7 8 9 10 10 11 11 11 12 12 12 12 12 13 13 13 13 13 13
16 15 14 13 10 8 7 7 7 6 6 5 4 4 3 1 0 0 1 3 4 4 5 6 6 6 7 7 7 7 8 8 9 10 10 11 11 12 12 12 12 12 13 13 13 13 13 13 12
18 18 15 14 12 10 10 9 8 8 6 5 5 4 3 1 1 0 1 3 4 5 6 6 6 6 6 7 7 7 8 9 9 10 10 11 12 13 13 13 13 13 13 13 13 13 13 13 13
17 17 16 15 13 11 11 9 8 7 6 5 4 3 2 1 1 1 1 3 4 4 5 6 6 6 6 6 7 7 8 9 10 10 11 12 13 13 13 13 13 13 13 13 13 13 13 13 13
19 17 17 16 14 12 11 9 7 6 5 4 3 2 1 1 1 2 2 3 4 4 4 5 6 6 6 6 7 8 8 9 10 10 11 12 13 13 14 14 13 13 13 13 14 14 14 13 13
20 19 18 16 14 12 11 9 8 6 6 5 3 2 1 1 2 3 4 4 3 3 4 4 4 5 5 6 6 7 8 9 10 11 11 12 13 13 14 14 13 13 13 14 14 14 14 14 13
22 21 19 17 14 13 11 10 8 6 5 5 4 2 2 2 2 3 3 4 4 4 4 4 4 4 4 5 6 7 8 9 9 10 11 12 13 13 14 14 14 14 14 14 15 15 14 14 14
24 22 20 19 16 13 10 9 8 7 6 6 5 3 2 1 2 3 4 4 4 4 3 3 3 3 4 5 6 7 8 9 10 10 12 13 14 14 14 14 15 15 15 15 15 15 14 14 14
24 22 20 20 16 13 11 9 8 8 6 5 4 3 2 2 2 3 3 3 3 3 2 3 4 4 4 5 6 7 8 9 10 11 12 13 14 15 15 15 15 15 15 15 16 15 14 13 12
24 23 21 19 17 14 11 10 8 8 7 6 5 3 3 2 2 2 2 2 2 2 2 3 3 3 4 5 6 7 8 9 10 11 12 13 14 15 15 15 16 17 16 16 16 14 14 12 11
25 23 21 19 17 15 13 10 9 8 7 6 5 4 3 2 1 1 1 0 1 1 2 2 3 3 4 6 7 7 8 9 10 11 12 13 14 15 16 16 17 17 17 17 16 14 13 11 10
25 23 21 19 17 15 13 10 9 9 7 7 6 5 4 3 2 1 1 1 1 1 2 3 3 4 5 7 8 8 9 9 11 12 12 13 14 15 16 17 18 18 18 18 16 14 12 11 9
24 22 21 19 18 16 14 12 11 9 7 6 6 6 5 4 2 1 1 1 1 2 2 3 4 5 6 7 8 9 9 10 11 12 13 14 15 16 17 18 18 19 18 17 16 14 12 10 9
24 23 21 20 18 16 14 12 11 10 9 8 7 6 5 4 2 2 2 2 2 3 3 4 4 5 5 6 7 8 9 10 11 12 13 14 15 16 18 18 19 19 18 17 16 14 12 10 9
24 23 23 21 19 17 15 13 12 10 9 8 7 6 5 5 4 3 3 3 3 3 3 4 4 4 5 6 7 8 9 11 12 13 14 14 15 16 18 19 19 18 18 17 16 15 13 11 9
25 24 23 22 20 19 16 13 12 9 8 7 7 6 5 5 4 4 3 3 3 3 4 4 4 5 5 6 7 8 10 11 12 13 14 15 16 16 17 19 19 18 18 17 17 16 14 11 9
24 23 23 21 19 18 15 13 12 9 8 7 7 6 5 5 5 4 4 4 4 3 3 4 4 5 6 6 7 9 10 11 12 13 14 15 16 17 18 18 19 19 18 18 17 16 14 12 9
23 22 22 21 20 17 15 13 11 10 9 8 7 6 6 6 5 4 3 3 3 3 3 3 3 4 5 7 8 9 10 11 12 13 14 16 16 17 18 19 19 19 19 19 18 17 14 12 10
24 24 23 21 19 18 15 13 12 10 9 8 7 7 6 6 5 4 3 3 3 3 3 3 3 4 5 6 8 9 10 11 12 13 14 16 16 17 17 18 18 18 18 19 18 17 15 13 11
25 24 23 21 20 18 15 14 12 10 9 8 8 7 6 6 5 4 4 3 3 3 3 3 3 4 5 6 7 9 10 11 12 13 14 15 16 17 18 18 19 18 18 18 18 18 17 14 12
25 24 22 20 19 18 16 14 12 10 8 8 8 7 7 6 5 5 5 4 3 3 3 3 3 3 4 5 7 8 9 10 12 13 14 15 16 17 18 19 19 19 18 18 18 18 17 16 14
24 22 20 18 18 17 16 13 11 9 8 8 7 7 7 6 6 6 5 5 4 4 3 2 2 2 3 5 6 8 9 10 12 13 14 15 16 17 18 19 19 19 19 18 18 17 17 16 14
22 22 21 20 19 18 16 13 10 8 8 7 7 7 7 7 7 6 5 5 4 4 3 2 1 1 2 4 5 7 8 10 11 12 14 15 16 17 17 18 19 20 20 20 19 18 17 16 15
21 22 21 20 19 18 16 12 10 9 8 8 8 8 7 7 7 6 6 6 5 4 3 2 1 1 3 4 5 7 8 10 11 12 14 15 16 17 18 18 19 20 20 21 20 20 18 17 15
21 21 21 21 20 18 14 11 11 10 9 8 8 8 8 8 7 7 7 6 4 3 3 2 2 3 3 4 5 7 9 10 11 12 13 14 15 16 18 19 19 20 21 21 21 21 20 18 17

GEFSSGP_500_meanwind_126.txt.gz
Wind_Speed
8 7 6 5 4 4 4 4 5 5 6 7 7 6 5 5 4 3 2 1 0 1 2 3 5 5 6 7 8 8 9 9 9 9 9 10 10 10 10 11 11 11 11 11 11 11 11 10 10
10 8 7 6 5 4 4 4 5 6 6 6 6 6 5 4 4 3 2 1 1 1 3 4 5 5 6 7 7 8 9 9 9 9 10 10 10 11 11 12 12 12 12 12 12 12 12 11 11
11 10 8 7 6 6 5 5 5 6 5 5 6 5 5 4 4 3 2 1 1 2 3 4 4 5 6 7 7 8 8 8 9 9 10 11 11 12 12 12 13 13 12 12 12 12 12 11 11
12 12 10 9 7 6 5 5 5 6 6 6 6 5 4 4 3 3 2 1 1 2 3 4 5 6 6 7 8 8 8 8 9 10 11 11 11 12 12 12 12 12 12 13 12 12 12 11 10
14 12 11 10 8 7 5 5 6 7 7 7 7 6 4 3 2 2 2 0 1 2 3 5 6 6 6 7 8 8 8 9 9 10 10 11 11 12 12 12 12 12 12 12 12 11 11 10 10
14 14 12 10 8 6 5 5 5 7 7 7 6 5 4 3 2 2 1 1 2 2 4 5 6 6 7 7 7 8 8 9 10 10 11 11 11 12 12 13 13 12 12 11 11 11 11 10 10
16 14 13 12 10 8 6 5 5 7 8 8 7 5 5 3 2 1 1 1 2 3 4 5 6 6 6 7 7 8 8 9 10 11 11 12 12 12 13 13 13 12 12 12 11 11 11 11 10
17 15 14 13 11 9 8 7 7 8 8 8 7 6 5 3 1 1 2 2 3 4 5 5 6 6 6 7 8 8 9 10 11 11 12 12 12 13 13 13 12 12 12 12 12 11 11 11 10
18 17 15 14 13 11 9 8 8 8 9 8 7 6 4 3 2 2 2 3 3 4 4 5 5 6 7 7 8 9 10 10 11 12 12 13 13 13 13 13 13 13 12 12 12 11 11 11 11
19 18 16 15 14 12 10 9 8 9 8 8 8 7 5 3 3 3 3 3 3 4 4 5 6 7 7 7 8 9 10 10 11 12 12 13 13 13 13 13 13 12 12 12 12 11 11 11 11
20 19 16 15 14 12 11 10 10 9 8 8 8 7 5 4 3 3 3 4 4 4 5 5 6 6 7 7 9 10 10 11 11 12 13 13 13 13 13 12 12 12 12 12 12 12 12 11 11
20 19 17 15 14 13 12 11 9 9 8 8 8 6 4 3 3 2 3 4 3 4 4 5 6 6 6 7 9 10 10 11 11 12 13 13 13 14 13 12 13 13 13 13 13 12 12 11 11
21 19 18 16 14 14 13 12 10 9 9 7 6 5 4 4 3 3 3 3 3 3 4 5 5 5 6 7 8 9 10 11 11 12 12 13 14 14 14 13 14 14 14 14 13 13 12 11 10
23 22 20 18 16 14 13 12 11 10 9 8 6 6 5 4 4 2 2 3 3 3 3 4 4 5 6 7 7 9 10 10 11 12 13 13 14 14 14 15 15 15 15 14 14 13 12 10 9
25 23 21 19 17 16 14 13 12 10 9 8 6 5 5 5 4 3 2 2 2 2 3 3 3 4 5 6 7 8 9 10 11 12 13 13 14 15 15 16 16 16 16 15 15 13 12 10 9
25 24 23 20 18 17 16 13 12 11 9 8 7 6 6 6 4 3 2 2 2 2 2 2 2 3 4 5 6 8 9 10 11 12 13 13 14 15 16 16 17 17 16 15 15 13 12 11 9
26 24 23 21 20 18 16 14 11 11 10 9 8 7 6 5 4 3 3 2 2 2 1 1 2 2 3 5 7 8 9 10 11 12 13 14 15 16 16 17 17 17 17 16 15 13 12 11 9
25 24 23 22 21 18 16 14 12 11 11 10 9 8 7 6 5 4 3 3 2 2 1 0 1 2 4 5 7 8 9 10 11 12 13 14 15 16 17 18 18 18 18 17 15 14 12 11 9
25 25 24 22 21 19 17 15 13 12 11 11 10 9 7 6 6 5 4 3 2 2 1 1 1 2 4 6 8 9 10 11 12 13 14 15 15 16 18 19 19 19 18 17 16 14 13 12 10
26 26 25 23 21 20 18 17 15 14 12 11 10 10 9 8 6 6 5 4 3 2 2 1 2 3 5 6 8 9 10 11 13 14 14 15 16 17 18 19 20 20 18 17 17 15 14 13 11
26 25 24 23 22 20 19 18 16 15 14 12 11 11 10 8 8 7 6 5 4 3 2 2 2 4 5 6 7 9 10 11 13 14 15 15 16 18 19 19 20 20 19 18 18 16 15 14 12
25 25 24 23 22 21 20 18 17 16 15 13 12 11 11 10 9 8 7 6 6 4 3 3 3 4 4 6 7 9 10 11 13 14 15 16 17 18 19 20 20 20 20 19 19 17 16 15 13
25 24 23 23 22 21 20 20 19 18 16 14 13 12 11 11 10 9 8 7 7 5 5 4 3 3 4 5 7 8 10 11 12 14 15 16 16 17 18 19 20 20 20 20 20 19 18 16 14
25 24 23 23 23 22 21 20 19 18 17 15 14 13 12 11 11 10 9 8 8 7 6 4 3 3 3 5 6 8 9 10 12 13 14 15 16 17 18 19 20 20 20 20 21 20 19 18 16
26 25 24 23 23 21 20 20 18 18 17 16 14 13 13 12 11 11 9 9 8 7 6 4 3 2 3 4 6 7 8 10 11 12 13 15 15 16 17 18 19 19 19 20 20 20 20 19 17
25 24 24 23 21 20 20 19 18 17 16 15 14 13 13 12 11 11 10 9 9 8 7 5 3 2 2 3 4 6 7 9 10 11 12 14 15 16 16 17 18 19 19 19 20 20 20 20 19
24 23 22 21 20 20 21 19 17 16 16 14 13 13 13 12 11 11 10 9 9 8 7 5 4 2 1 1 3 5 6 8 9 10 11 13 14 15 16 16 17 18 18 19 19 19 20 20 19
22 22 22 21 20 20 20 18 15 15 14 14 14 13 13 12 12 11 10 10 9 9 8 6 5 3 1 0 2 4 5 7 8 9 10 12 13 14 15 16 17 17 18 18 19 19 19 19 19
21 20 20 19 18 18 17 15 15 14 14 14 13 13 12 12 12 11 11 10 10 9 8 7 5 4 2 2 3 4 5 6 8 9 10 11 12 13 14 15 16 17 17 18 19 19 19 19 19
20 19 20 19 17 17 16 14 15 14 14 13 13 13 13 12 12 11 11 11 10 10 8 7 6 4 3 3 3 4 5 6 8 9 10 11 11 12 13 15 15 16 17 18 18 18 19 19 19

GEFSSGP_500_meanwind_132.txt.gz
Wind_Speed
8 6 5 4 4 3 3 4 4 6 6 7 7 7 7 7 6 6 5 4 2 1 0 2 3 4 4 5 5 6 7 8 8 7 8 8 8 8 8 8 8 8 7 7 6 6 5 5 5
9 8 6 5 5 4 4 4 5 6 7 8 7 7 7 7 6 6 5 4 2 1 1 2 3 4 4 5 6 7 8 8 8 8 8 8 8 9 9 9 9 9 8 7 7 6 6 6 6
10 9 7 6 6 6 6 5 6 6 6 8 7 7 7 6 6 5 4 3 2 1 1 2 3 4 4 5 7 7 8 9 9 8 9 8 8 9 9 9 10 9 9 8 7 6 6 6 6
11 9 8 7 7 7 7 7 7 6 6 7 8 7 7 6 6 5 5 3 2 1 1 2 3 4 5 6 7 8 9 9 9 9 9 9 9 9 10 10 10 10 10 9 8 7 7 6 6
12 10 9 8 8 8 7 7 7 7 7 7 8 8 7 6 6 5 5 3 1 0 1 2 3 4 5 6 7 8 8 9 9 9 9 10 10 10 11 11 11 10 10 9 8 8 7 6 6
13 11 10 9 8 8 8 7 7 7 7 8 8 8 7 6 6 6 5 3 1 0 1 3 4 5 6 6 7 8 8 9 9 9 10 11 11 11 11 11 11 10 10 10 9 8 7 7 7
14 12 11 9 8 8 7 7 7 7 6 7 7 7 7 7 6 5 4 2 1 0 2 3 4 5 6 6 7 7 8 9 9 10 11 11 12 12 11 11 11 11 10 9 9 8 8 7 8
15 14 12 11 10 9 8 8 8 8 6 6 7 8 8 7 6 5 3 2 1 1 2 3 4 5 5 6 7 8 9 9 10 11 11 12 12 12 12 11 11 11 10 9 9 9 8 8 8
16 15 14 13 12 11 10 9 9 9 7 7 8 8 7 6 5 4 3 1 1 2 3 3 4 5 5 6 7 8 9 10 10 11 11 12 12 12 12 11 11 11 10 9 9 9 8 8 8
17 16 15 14 13 12 11 10 9 8 8 7 8 8 7 6 5 4 2 1 1 2 2 3 4 5 5 6 7 8 9 10 10 11 11 12 12 12 12 12 11 10 10 10 9 9 9 8 8
18 17 16 14 13 12 12 10 10 9 8 8 8 8 7 6 5 3 2 2 1 1 2 3 4 4 5 6 7 8 9 10 10 11 11 12 12 13 12 12 11 10 10 10 9 9 8 8 7
20 19 17 15 14 13 12 11 10 10 9 8 8 8 8 7 6 4 3 2 1 1 1 3 3 4 5 6 8 8 9 9 10 11 12 12 13 13 12 12 12 11 10 10 9 8 8 7 7
21 20 18 17 15 14 13 12 11 10 10 9 9 9 9 7 5 3 2 2 1 1 1 2 3 3 5 6 7 8 9 9 10 11 12 12 12 13 13 13 12 12 11 10 9 8 7 6 5
21 20 19 18 16 15 14 13 12 12 11 10 10 10 9 8 6 4 3 2 1 0 1 2 3 4 5 6 7 8 8 9 10 11 12 12 13 13 13 12 12 12 11 10 10 9 7 6 4
22 21 20 19 17 16 15 15 14 13 12 11 11 10 9 8 6 5 4 3 2 1 1 2 3 4 5 6 7 7 8 9 11 11 12 12 13 14 13 12 13 13 12 11 11 9 7 5 4
23 23 21 20 19 18 16 16 15 14 13 13 12 10 9 8 6 5 5 4 3 2 2 2 3 4 5 5 6 7 8 9 10 11 12 12 13 14 13 13 13 13 13 12 11 10 8 6 4
24 22 22 22 21 20 18 17 16 15 14 14 12 11 9 8 7 6 5 5 4 3 2 2 2 3 4 5 6 7 8 9 10 11 12 13 13 14 14 14 14 14 14 13 12 11 9 7 6
24 23 23 23 23 21 19 18 16 15 15 14 13 11 10 8 8 7 6 5 4 3 2 2 2 3 3 4 5 6 7 8 10 11 12 13 14 14 15 15 15 15 14 14 13 12 11 10 8
24 24 23 23 23 21 19 18 17 16 15 13 13 12 11 9 8 7 6 6 4 4 3 3 2 3 4 5 6 6 7 8 10 11 12 13 14 15 16 16 16 16 15 14 14 13 12 11 10
25 25 24 23 22 20 20 18 17 16 15 14 13 12 11 10 8 7 7 6 5 4 4 4 3 3 4 5 6 7 8 9 10 10 11 12 14 16 16 17 16 16 16 15 15 14 13 13 11
26 26 24 23 22 21 21 20 19 18 17 15 13 13 12 10 9 8 8 7 6 5 5 5 4 4 4 5 6 7 8 9 10 10 11 13 14 15 16 16 17 16 16 16 16 15 14 13 12
25 26 25 24 22 22 22 20 20 19 18 16 14 13 12 11 10 9 8 8 7 7 6 6 5 4 4 5 6 7 8 9 9 10 11 13 14 15 16 16 16 17 16 17 16 16 15 14 14
25 25 25 24 23 22 22 20 19 18 18 17 15 13 13 12 11 10 9 9 8 8 7 7 6 5 4 4 5 6 7 8 9 10 11 12 13 14 15 16 16 17 16 17 16 16 15 14 14
24 24 24 24 24 22 22 21 20 18 17 17 16 14 13 12 12 12 11 10 9 9 8 8 6 5 4 4 5 5 6 7 8 9 11 12 12 13 14 15 16 16 16 16 16 15 15 14 13
24 24 23 23 24 23 22 21 20 18 18 17 16 15 14 13 13 12 12 11 11 10 9 8 7 6 5 4 4 4 5 6 7 9 10 11 12 13 14 14 15 15 16 16 15 15 15 14 13
23 24 23 22 23 22 22 21 19 19 18 18 17 17 15 14 14 13 13 12 11 11 10 10 8 7 5 4 3 3 4 5 6 8 9 10 11 12 13 13 14 14 15 15 15 15 15 14 13
22 22 22 21 21 21 20 19 18 18 18 18 17 17 15 15 15 15 14 13 13 12 11 10 9 8 6 4 3 2 2 3 4 6 8 9 10 11 12 13 13 14 14 14 14 14 14 13 13
21 22 21 20 19 20 20 19 18 18 18 17 17 16 16 15 15 15 15 14 14 13 12 11 10 9 7 5 4 2 1 2 3 5 6 8 9 10 11 12 12 13 13 13 13 13 13 12 12
20 21 21 21 20 19 18 19 18 18 17 17 16 16 16 15 15 15 15 15 14 14 13 12 11 9 8 6 5 3 1 1 2 4 5 6 8 9 9 10 11 12 12 12 12 12 12 12 11
19 20 21 21 20 19 18 18 19 18 17 17 16 16 16 16 16 16 15 15 15 15 14 13 12 10 9 7 6 4 3 2 2 3 4 6 7 8 9 9 10 11 12 12 12 12 12 12 11

GEFSSGP_500_meanwind_138.txt.gz
Wind_Speed
7 6 4 4 4 4 4 5 5 5 5 6 5 5 6 6 5 4 4 3 3 3 3 3 3 4 5 5 6 7 8 8 8 8 8 8 8 8 7 7 7 7 7 6 6 7 7 7 8
9 7 6 5 5 6 6 6 5 6 6 7 6 5 5 5 5 4 4 3 3 3 3 3 4 5 5 5 6 7 8 8 8 8 9 9 9 8 8 8 8 7 7 7 7 7 7 7 7
10 9 7 7 7 7 7 6 6 7 6 7 7 6 5 5 5 5 4 3 2 3 3 3 4 5 5 5 7 8 8 8 9 9 9 9 9 8 8 9 9 8 7 7 7 7 7 7 7
10 9 9 9 8 8 8 7 7 7 6 6 7 7 6 5 5 5 4 3 2 2 3 4 4 4 5 6 7 8 8 9 9 8 9 9 9 9 9 9 9 9 8 8 8 8 8 8 8
12 11 10 9 9 8 8 7 7 8 7 6 7 7 6 6 5 5 4 3 2 2 2 3 4 4 5 6 7 8 8 8 8 8 9 9 10 10 10 10 9 9 8 8 8 8 8 8 8
13 12 11 10 9 8 9 8 8 7 7 6 6 6 5 6 5 5 4 3 2 2 2 3 4 5 6 7 7 7 7 8 8 8 9 10 10 10 10 10 10 9 9 8 8 7 8 8 9
13 13 12 11 10 9 9 8 8 7 7 6 5 5 5 6 6 5 4 3 3 2 2 3 3 4 5 6 6 7 7 8 9 9 10 10 10 10 10 10 10 9 9 8 8 7 8 8 9
14 13 12 12 11 10 9 8 8 7 8 7 6 6 6 6 6 5 4 4 3 2 2 2 3 4 5 5 6 7 8 8 9 10 11 11 10 10 10 10 9 9 9 9 8 8 8 8 8
15 14 14 13 12 11 9 8 8 7 7 7 6 6 6 6 6 5 4 3 3 2 1 1 3 4 4 5 6 7 8 9 10 10 11 11 11 11 11 10 10 10 10 9 8 8 7 7 8
17 16 15 14 12 11 10 9 9 9 8 7 7 7 6 7 6 5 3 3 2 2 1 1 3 4 4 5 6 7 8 9 10 11 11 12 11 11 11 11 10 10 9 9 8 8 7 7 8
19 18 18 16 13 13 12 11 10 10 9 7 6 6 7 7 6 5 4 3 2 1 1 2 3 3 4 5 7 7 8 9 10 11 12 12 12 11 11 11 11 10 9 9 8 7 6 6 7
20 19 18 17 15 14 13 12 11 11 9 8 7 7 7 7 7 5 4 3 2 1 1 2 3 3 4 6 7 7 8 10 11 11 12 13 13 12 12 12 11 11 10 9 8 6 6 5 6
20 20 18 16 15 15 14 13 12 11 9 8 7 7 7 7 6 5 5 3 3 1 1 1 2 3 4 5 6 7 9 10 11 12 13 13 13 13 12 12 12 12 10 9 8 7 5 4 4
21 21 20 18 16 16 15 14 13 11 10 9 8 8 7 7 6 5 4 4 3 2 1 1 2 3 4 5 6 8 9 10 12 13 13 14 14 13 13 12 12 12 11 10 8 7 5 4 3
20 20 20 19 18 17 16 15 14 12 11 10 9 9 8 8 7 6 5 4 4 3 2 2 2 3 4 5 7 8 9 11 12 13 14 14 14 14 14 13 13 12 12 11 9 8 6 4 3
20 20 19 19 18 18 16 15 14 13 12 11 10 9 9 9 8 7 6 5 4 4 3 3 3 3 4 6 7 8 9 11 12 13 14 14 15 15 14 14 14 13 13 12 11 9 7 6 5
21 20 20 20 19 19 18 16 15 14 13 12 11 11 10 10 8 8 7 6 5 4 4 3 3 3 5 6 7 8 9 10 12 13 14 14 15 15 15 15 15 15 15 14 12 11 9 8 7
20 20 20 20 19 20 19 18 16 15 15 14 13 12 11 10 9 9 8 7 7 5 4 3 3 4 5 6 7 8 9 10 12 13 13 14 15 15 15 15 15 16 16 15 14 13 11 10 9
21 21 21 21 20 20 20 20 19 17 15 13 13 13 12 11 10 9 9 8 7 6 5 4 4 4 5 6 7 8 9 10 11 12 13 14 15 15 15 15 15 15 16 15 15 14 13 12 11
23 22 22 22 22 21 20 20 19 18 16 14 13 12 13 12 11 10 9 9 8 7 6 5 4 4 4 5 6 7 8 9 10 11 13 14 15 15 15 16 16 15 15 15 15 14 13 13 12
23 22 21 22 21 20 20 19 18 17 17 15 14 14 14 13 12 11 10 9 9 8 7 6 5 4 4 4 5 7 8 9 10 11 12 13 14 15 15 16 16 15 15 15 15 14 14 13 13
23 23 23 23 21 21 20 19 19 18 18 17 15 14 14 14 13 11 10 10 9 8 8 7 6 4 4 4 4 6 7 8 9 10 11 12 13 14 15 16 16 16 15 15 14 15 14 14 13
22 23 23 23 22 22 21 19 18 18 19 17 16 15 15 15 14 12 11 10 10 9 8 7 6 5 4 3 3 4 6 7 8 9 10 12 13 14 15 16 16 16 15 15 14 14 14 13 13
22 21 21 22 23 22 20 19 18 17 17 17 17 16 15 15 15 13 12 12 11 10 9 8 7 6 4 3 2 3 5 6 7 8 9 11 12 13 14 15 16 16 16 15 15 14 13 13 12
21 20 20 21 21 19 18 20 19 17 17 16 16 16 15 15 14 14 14 13 12 11 10 9 8 6 5 4 2 2 3 5 6 7 8 10 11 12 13 14 15 15 15 15 15 14 13 13 13
19 20 18 18 17 15 18 19 18 18 17 17 17 16 16 16 15 15 15 14 13 12 11 10 9 8 6 5 3 1 2 3 5 6 7 9 10 11 12 12 13 14 14 14 14 14 13 12 12
20 21 19 17 16 13 15 16 16 15 16 17 17 17 16 15 16 15 15 15 14 13 12 12 10 9 7 6 4 2 1 2 3 5 6 7 9 10 11 12 12 13 13 13 13 13 13 12 12
19 20 20 19 17 15 13 12 13 14 15 17 17 16 15 16 15 16 15 15 15 14 13 12 11 10 9 7 5 4 2 1 2 3 4 6 7 8 9 10 11 12 12 12 12 12 12 12 11
18 20 20 20 19 16 14 15 15 15 15 17 17 16 16 15 15 16 16 15 15 15 14 14 12 11 10 9 7 5 4 2 0 2 3 5 6 7 8 9 10 11 11 12 12 12 12 12 11
18 19 20 20 19 18 16 15 14 14 15 17 17 17 17 17 17 17 17 17 16 16 15 14 13 12 11 10 8 7 5 4 2 2 3 4 5 6 8 9 10 10 10 11 11 11 12 12 12

GEFSSGP_500_meanwind_144.txt.gz
Wind_Speed
6 5 5 5 5 6 4 3 3 3 3 3 3 3 2 1 1 2 2 2 1 0 1 1 2 2 3 3 4 4 5 5 6 6 6 6 7 7 8 8 8 8 8 8 9 9 9 8 9
7 6 6 6 6 6 5 5 5 4 4 5 4 3 3 2 2 2 3 2 1 0 0 1 2 3 3 3 4 5 5 6 6 6 6 6 7 7 8 8 8 8 9 9 8 8 9 9 9
8 8 7 7 7 7 6 5 4 4 4 5 4 3 2 3 3 3 3 2 1 0 0 1 2 3 4 4 5 5 6 6 6 6 6 6 7 8 8 8 9 8 9 9 8 8 9 9 9
9 9 8 8 8 7 6 5 4 4 3 2 3 3 2 3 4 4 3 2 1 1 0 1 2 3 3 4 5 5 6 6 6 6 7 7 8 8 8 8 8 8 8 9 9 9 9 9 9
10 10 10 9 9 8 7 6 5 3 3 2 3 4 4 4 4 4 3 3 2 1 0 1 2 3 3 4 5 5 6 6 6 7 8 8 8 9 9 8 8 9 9 9 9 9 10 10 10
11 11 11 11 10 9 8 6 5 4 3 3 4 5 4 4 5 4 4 3 3 2 0 1 2 2 3 5 5 5 6 7 7 8 8 8 9 9 9 8 8 9 9 9 9 9 9 9 9
12 12 12 11 10 9 8 7 6 4 4 4 4 5 4 5 5 5 4 4 3 2 1 1 2 3 4 5 5 5 6 7 7 8 9 9 10 10 9 9 9 9 8 9 9 9 9 9 9
13 13 12 11 10 9 7 6 6 5 5 4 4 5 6 5 5 5 4 4 3 2 1 0 1 2 3 4 5 5 6 7 8 9 10 10 10 10 9 9 9 9 8 8 9 8 8 8 8
14 14 14 12 11 10 8 6 6 5 4 4 4 5 5 5 5 5 5 4 3 2 1 1 1 2 3 4 5 5 6 7 8 9 10 11 11 10 10 10 9 9 8 8 8 8 8 7 8
15 15 15 14 12 11 9 7 7 6 5 5 5 5 5 5 6 6 6 4 3 2 2 1 1 2 3 4 5 6 7 8 9 10 11 12 12 11 10 10 9 8 8 8 7 7 7 7 7
15 15 15 15 12 10 8 9 8 7 7 5 5 5 5 5 6 7 6 5 4 3 2 1 1 2 3 3 4 6 7 8 9 10 11 12 11 11 10 10 9 8 7 7 6 6 5 5 6
17 17 16 14 12 10 9 9 9 9 8 7 6 5 5 6 6 6 5 5 4 4 3 2 1 1 2 3 4 5 7 9 10 11 11 12 11 11 11 11 10 9 8 7 6 5 4 3 4
17 17 15 14 14 13 10 10 9 8 8 7 6 5 6 6 6 6 5 5 5 4 4 3 2 2 2 3 4 5 7 9 10 11 12 12 12 12 12 12 11 10 9 8 7 5 3 2 2
17 17 15 14 14 12 11 9 8 9 9 8 7 6 6 7 8 7 6 6 5 5 4 4 3 2 3 3 5 6 7 9 10 12 12 13 13 13 13 13 13 12 11 9 7 5 4 1 1
18 17 16 15 14 13 11 10 10 10 10 9 8 7 7 7 8 7 7 6 6 6 5 4 3 3 3 4 5 6 7 9 10 11 13 13 14 14 14 14 14 14 12 11 9 7 5 4 3
18 18 17 16 16 14 13 11 11 11 11 11 9 8 7 7 8 8 7 7 6 7 6 5 4 3 3 4 4 6 8 9 11 12 13 14 14 15 15 15 15 15 14 13 11 9 8 6 5
17 17 17 17 16 15 14 13 12 11 11 11 10 9 9 9 8 9 9 8 8 7 6 6 4 3 4 4 4 6 8 9 11 12 13 14 15 15 15 15 15 16 15 14 13 11 10 9 7
16 16 17 17 16 16 15 14 12 11 11 11 10 9 9 10 9 10 10 9 8 8 7 6 5 4 4 4 4 6 7 9 10 12 13 14 15 15 16 16 16 16 15 15 14 13 12 11 10
17 18 18 18 17 16 16 15 14 13 12 12 12 11 11 11 10 11 12 11 10 9 8 7 5 4 4 4 5 6 7 8 10 12 13 14 15 15 15 16 16 16 16 15 15 14 13 13 12
18 19 19 18 18 18 17 17 16 15 13 13 13 13 12 12 12 12 13 12 11 10 9 7 6 5 4 5 5 6 6 8 9 11 12 13 14 15 15 16 16 16 16 16 15 15 14 13 13
17 19 20 19 18 18 18 17 18 17 15 14 14 14 13 13 14 14 14 13 12 11 9 8 7 6 5 5 5 5 6 7 9 10 11 13 14 14 15 16 16 16 16 16 15 15 15 14 14
17 18 19 19 19 18 18 18 18 18 17 15 15 14 14 14 14 15 14 14 13 12 11 9 8 7 5 5 5 5 5 6 7 9 10 12 13 14 14 15 16 16 16 16 15 15 15 14 14
16 17 18 19 19 18 18 18 17 18 17 16 16 15 15 15 16 16 15 15 14 13 12 10 9 7 6 5 5 4 5 6 7 8 9 10 12 13 13 14 14 15 15 15 15 15 14 14 13
16 16 17 17 18 18 16 17 16 15 15 16 16 16 16 16 17 17 16 16 15 14 12 11 9 7 6 5 5 4 4 5 6 7 8 9 10 11 12 13 14 14 14 14 14 14 14 13 13
15 17 17 17 18 17 16 16 14 14 13 15 16 16 16 17 18 17 17 16 16 15 13 11 10 8 7 6 5 4 4 4 5 6 7 8 9 10 11 12 12 13 13 14 14 14 14 13 13
14 16 16 16 16 16 17 16 14 15 15 15 16 17 18 18 19 18 17 17 17 16 14 12 11 9 8 7 5 4 4 3 4 5 6 7 8 9 10 10 11 12 12 12 13 13 13 13 12
14 15 16 16 15 16 16 15 15 15 15 15 16 16 17 18 19 18 18 17 18 17 15 13 12 10 9 7 6 5 4 3 3 4 5 6 7 8 9 9 10 11 11 11 11 11 12 12 12
15 15 16 17 16 16 15 14 15 16 15 15 17 17 17 18 18 18 18 18 18 17 16 14 13 12 10 9 7 6 5 4 3 2 3 5 6 7 8 8 9 9 10 10 10 10 10 11 11
15 16 17 17 16 15 14 13 14 15 16 16 17 18 17 18 18 19 19 18 18 18 16 15 14 13 11 10 9 7 6 5 4 2 2 3 4 5 6 7 7 8 8 8 9 9 9 10 10
15 16 17 17 17 16 15 13 14 15 17 18 18 19 19 18 19 19 19 19 18 18 17 16 15 13 12 11 10 9 7 5 4 3 2 1 2 3 4 5 5 6 6 6 7 8 8 9 9

GEFSSGP_500_meanwind_150.txt.gz
Wind_Speed
5 5 6 6 6 6 6 5 4 4 3 3 3 3 4 3 4 3 3 2 1 1 1 1 2 3 4 5 6 7 8 8 9 9 10 10 10 10 10 10 10 10 10 10 9 9 8 8 7
6 6 6 6 6 6 6 5 5 5 4 4 3 3 4 3 3 3 2 2 2 1 1 1 2 3 4 5 6 7 8 9 9 9 9 10 10 10 11 11 11 11 11 10 10 10 9 9 8
7 7 7 6 6 6 6 6 5 5 5 4 4 3 3 3 3 3 2 2 2 1 1 1 2 2 3 4 5 7 8 8 9 9 9 10 10 11 11 11 12 11 11 10 10 10 10 10 9
8 8 8 7 6 6 6 5 5 6 5 5 4 4 4 3 3 3 2 2 2 1 1 1 1 1 3 4 5 6 7 8 9 9 10 10 11 11 11 11 12 11 11 10 9 9 9 9 8
9 9 8 8 7 7 7 7 7 6 5 4 4 4 4 4 4 3 3 3 2 2 1 1 1 2 3 4 5 6 7 7 8 9 10 10 11 12 11 11 11 11 10 9 9 8 8 8 8
10 9 9 9 8 8 8 8 8 6 6 6 5 4 4 5 4 4 3 3 2 2 1 1 1 2 2 4 5 6 7 7 8 9 10 11 11 11 11 11 11 10 10 9 9 8 8 8 8
11 10 10 9 8 8 9 8 9 8 7 5 5 5 5 5 5 5 5 4 3 2 2 2 1 1 2 4 5 6 7 8 9 9 10 11 11 11 11 11 10 10 9 9 8 8 8 8 7
12 11 10 10 9 9 9 9 9 9 7 6 5 5 6 5 6 6 5 5 4 3 2 1 1 1 2 3 5 6 7 8 8 10 11 12 12 11 11 11 10 9 9 8 8 8 7 7 6
12 11 11 10 9 9 9 9 9 8 6 6 5 5 6 6 6 6 5 6 5 3 2 1 1 1 2 3 5 6 7 8 9 10 11 12 12 12 11 11 10 9 8 8 7 6 6 6 5
12 12 12 11 10 10 10 10 9 8 6 6 5 6 6 7 5 6 7 7 6 5 3 2 1 1 2 4 5 6 7 8 9 11 12 12 12 12 11 11 10 9 8 7 6 6 5 5 5
13 12 12 12 10 10 10 10 9 8 7 6 6 6 6 7 7 6 7 7 6 5 4 2 2 2 3 4 5 6 7 8 9 11 12 12 12 12 11 11 10 9 8 7 6 5 4 4 4
13 13 12 12 11 10 10 10 10 9 8 8 7 6 7 7 7 7 7 8 7 5 3 3 3 3 3 4 5 6 7 9 10 11 12 12 12 12 12 11 10 9 8 6 5 4 3 2 2
13 12 12 12 12 11 11 11 10 9 9 8 7 7 7 8 7 8 8 7 6 5 4 3 3 3 2 3 4 6 7 9 10 11 12 12 12 12 12 12 11 10 8 7 4 3 1 1 2
13 13 13 12 12 13 13 12 12 11 10 9 9 8 8 8 8 9 8 7 6 5 4 3 3 2 2 3 4 6 7 9 10 12 12 13 13 13 13 13 12 11 10 8 6 4 3 3 3
14 13 13 13 12 14 13 12 12 11 11 10 9 9 9 8 8 8 8 7 6 5 5 5 4 2 2 3 4 5 7 8 10 11 12 13 13 14 14 13 13 12 11 9 7 6 6 5 5
14 14 14 14 14 14 13 11 11 11 9 10 11 10 9 9 9 8 9 9 8 7 6 5 4 3 2 3 3 5 6 8 10 11 12 13 13 14 14 14 13 13 13 11 9 8 8 7 7
14 14 14 14 14 14 13 12 11 11 10 11 12 12 10 10 10 9 10 9 9 8 7 6 4 3 3 2 3 5 6 8 10 11 12 13 13 14 14 14 14 14 14 13 11 10 10 9 8
14 14 14 15 14 15 14 13 13 12 11 11 11 12 11 11 11 11 11 11 10 9 8 6 5 4 3 2 3 4 6 8 9 10 11 12 13 13 14 15 15 15 14 14 12 11 11 10 10
14 13 14 15 15 15 15 15 14 14 12 12 12 12 12 12 12 12 12 11 11 10 9 8 6 4 3 3 4 4 6 7 8 10 11 12 13 14 14 15 15 15 15 14 14 13 12 11 11
14 14 14 14 15 15 15 15 14 13 12 12 12 12 13 13 13 13 12 12 12 11 10 9 7 5 4 4 4 4 5 7 8 9 10 11 12 13 14 14 14 15 14 14 14 13 13 12 12
14 14 14 14 14 15 15 15 14 14 13 13 12 12 12 13 13 13 13 13 12 11 11 9 8 6 5 4 4 4 4 5 7 8 9 11 11 12 13 13 13 14 14 14 13 13 13 12 12
14 14 15 15 15 15 16 15 15 15 15 14 13 13 13 13 14 14 14 13 13 12 11 10 9 7 6 4 4 4 4 5 6 7 8 9 10 11 12 13 13 13 13 13 13 13 13 12 12
13 14 14 15 16 16 17 16 15 15 15 14 14 14 14 15 15 15 15 14 14 14 12 11 10 8 7 5 4 4 4 4 5 6 7 8 9 10 11 12 13 13 13 14 13 13 13 13 12
13 14 14 15 16 16 16 17 15 15 14 14 15 15 15 16 16 16 16 15 15 14 13 12 10 9 7 6 5 4 3 4 4 5 5 7 8 9 10 10 11 12 12 13 13 12 12 12 12
13 13 14 14 15 15 15 16 14 14 15 15 15 16 16 17 17 17 17 16 16 15 14 13 11 9 8 7 5 4 3 3 4 4 5 5 6 7 8 9 10 10 11 11 11 11 11 11 11
13 13 13 13 13 12 13 13 12 14 15 16 17 17 18 18 17 18 19 18 17 16 15 14 12 10 9 8 6 5 4 3 3 4 4 5 5 6 7 8 8 9 10 10 10 10 10 10 10
13 13 13 13 13 13 14 13 12 13 14 16 17 17 17 18 19 19 20 20 19 18 17 15 14 12 10 9 7 6 5 4 3 3 3 4 5 5 6 7 7 8 9 9 9 9 9 9 8
13 13 13 14 13 13 13 13 13 15 15 15 16 17 17 17 19 20 20 21 20 19 18 16 15 14 12 10 9 7 6 5 4 3 2 3 4 4 5 5 6 6 7 7 8 8 8 8 8
14 14 14 14 14 14 13 13 13 15 15 16 16 17 18 18 18 20 21 21 20 20 19 18 16 15 13 11 10 9 7 6 5 3 2 2 2 3 3 4 4 4 5 6 6 7 7 8 7
15 14 14 15 15 14 14 13 13 15 16 17 18 18 18 19 19 20 21 21 21 21 20 18 17 16 15 13 11 10 9 7 6 5 3 2 1 1 1 2 2 3 3 4 4 5 5 6 7

GEFSSGP_500_meanwind_156.txt.gz
Wind_Speed
3 2 2 3 3 3 4 5 5 5 4 4 4 4 4 5 5 4 4 3 2 1 0 0 1 1 1 2 3 4 5 6 6 6 6 6 6 5 5 4 5 5 5 5 6 6 6 6 6
4 3 3 3 3 4 5 5 5 5 4 4 4 4 4 5 4 5 4 4 3 2 1 1 1 0 1 2 3 4 5 6 6 6 6 6 6 6 6 5 5 6 6 6 6 6 7 7 7
4 3 3 3 4 5 5 4 5 6 5 4 4 4 5 5 4 5 5 4 3 2 2 2 2 1 1 2 3 4 5 6 7 6 6 7 7 7 7 7 7 7 7 7 7 7 7 8 8
5 4 4 4 5 5 5 5 5 5 5 5 4 5 6 6 5 5 6 5 4 3 3 2 2 1 1 2 3 5 6 6 7 7 7 7 8 8 8 8 8 7 7 7 7 8 8 8 9
6 5 5 6 6 6 5 6 5 5 6 5 5 6 6 6 6 6 6 5 4 4 3 3 2 1 1 2 4 5 6 7 7 7 8 8 8 8 8 8 7 7 6 6 7 7 7 8 9
7 6 7 7 7 7 6 7 6 7 7 7 6 6 7 6 5 6 7 6 5 4 3 3 3 1 1 2 4 5 6 7 7 7 8 8 8 8 8 8 8 6 6 5 5 6 6 8 9
8 8 8 8 8 7 7 8 7 7 7 7 7 7 7 7 6 6 6 6 6 4 3 3 2 1 0 2 3 4 5 6 7 8 8 8 9 8 8 8 7 6 5 4 5 5 6 8 8
8 8 8 9 9 8 8 8 8 9 8 8 8 8 8 7 7 6 5 6 6 5 4 3 2 1 0 1 2 4 5 6 7 8 8 8 8 8 8 7 6 5 4 4 3 4 5 7 8
9 9 9 9 9 9 9 9 9 9 9 9 9 9 9 8 8 7 7 6 5 5 4 4 2 1 0 1 2 4 5 6 7 8 8 8 8 8 7 7 6 5 4 3 3 3 4 5 7
9 9 10 10 9 10 10 9 9 9 9 9 9 9 9 8 8 8 8 7 5 5 5 4 2 1 1 0 2 3 5 6 8 8 9 8 8 8 8 7 6 5 4 3 3 3 4 5 6
10 9 9 9 9 10 10 10 10 9 10 9 9 9 9 8 8 8 8 7 6 5 5 4 3 2 2 1 2 3 5 7 8 8 9 9 9 9 8 7 6 5 4 3 2 2 3 5 6
11 10 10 10 10 10 10 10 10 11 11 9 9 9 9 9 10 8 8 7 6 5 6 5 4 3 2 2 2 2 4 6 7 8 9 9 9 9 9 8 7 5 4 3 1 1 3 4 6
11 11 11 10 10 10 10 10 11 11 10 9 9 9 9 9 10 9 8 7 6 6 6 6 5 4 3 2 2 2 4 6 7 8 9 9 10 10 9 8 7 6 4 3 1 1 2 4 5
11 11 11 11 11 11 10 10 11 11 10 9 9 9 9 9 9 9 8 8 8 7 7 7 6 4 4 3 2 2 4 5 7 8 9 9 10 10 9 9 8 7 5 3 2 2 3 4 6
11 11 11 10 10 10 10 10 11 11 11 10 10 9 9 9 8 9 9 9 9 8 7 7 6 5 4 3 2 2 4 5 7 8 9 9 10 10 10 10 9 8 6 5 4 4 5 5 6
11 11 11 10 10 10 11 11 12 12 11 10 10 9 8 9 8 9 10 10 10 8 7 7 6 6 4 3 2 3 4 5 6 7 8 10 10 11 11 11 10 10 9 8 7 7 7 7 7
12 11 11 11 10 11 11 11 11 12 12 11 10 9 9 8 9 10 10 10 10 9 8 7 7 6 4 3 2 2 3 4 6 7 8 10 10 10 11 11 11 11 10 9 9 9 8 8 8
11 12 12 12 11 11 11 12 12 11 12 12 11 10 10 9 10 10 10 10 10 10 10 8 8 6 5 4 3 2 3 4 5 7 8 9 10 10 10 11 11 10 10 9 9 9 9 9 9
12 12 12 12 12 11 12 12 12 12 11 11 11 11 10 11 11 11 11 11 11 11 10 9 8 7 5 4 3 2 2 3 5 6 7 8 10 10 10 11 11 11 11 10 9 9 9 9 9
12 12 12 12 12 12 12 13 13 12 13 12 11 11 11 11 12 13 12 11 11 12 10 10 9 7 6 5 4 3 2 2 4 6 7 8 9 10 10 11 11 11 11 11 11 10 10 9 9
12 12 12 12 12 12 12 13 13 13 13 13 12 11 11 12 13 12 12 12 13 13 12 11 10 8 7 6 5 3 2 2 3 5 6 7 8 9 10 10 10 11 11 11 11 11 10 10 9
12 12 13 13 12 12 13 13 14 14 14 14 13 12 12 13 14 14 13 13 14 14 13 12 11 9 8 6 5 4 3 2 3 4 5 7 7 8 9 10 10 10 10 11 10 10 10 10 9
12 12 13 12 12 12 12 13 13 14 15 14 15 14 13 14 15 15 14 14 15 14 14 14 12 10 9 7 6 5 4 3 3 3 5 6 7 7 8 9 9 10 10 10 10 10 10 9 9
13 12 12 12 13 12 12 13 13 13 14 14 15 15 15 15 15 15 15 15 15 15 15 14 13 11 10 8 7 6 4 3 3 2 3 5 6 6 7 8 8 9 9 10 10 10 9 9 9
12 12 12 12 13 13 13 14 13 13 14 14 14 15 15 15 16 16 16 16 16 16 16 15 14 12 11 9 8 7 5 4 3 3 2 3 4 5 6 6 7 8 8 8 8 9 9 8 8
13 13 13 13 13 13 13 13 13 13 14 14 15 15 16 16 16 16 17 17 16 16 16 16 15 13 12 11 9 8 7 5 4 3 2 3 3 4 5 5 6 7 7 7 7 7 7 7 7
13 14 13 13 13 13 13 12 13 13 14 14 15 16 17 16 17 17 17 17 17 17 17 16 16 14 13 12 11 9 8 6 5 4 3 3 3 3 4 4 5 5 6 6 6 6 6 6 6
13 13 13 13 13 13 12 13 13 14 15 15 15 16 17 17 18 18 18 18 18 18 18 17 17 15 14 13 12 10 9 8 6 5 4 3 3 3 3 3 4 4 5 5 5 6 5 5 5
13 13 14 13 13 13 13 13 14 14 14 15 16 16 17 17 17 18 19 19 19 19 18 18 17 17 16 15 13 12 10 9 7 6 5 4 4 3 3 3 3 3 3 3 3 4 4 4 4
14 14 14 14 13 14 14 13 13 14 14 15 16 17 17 17 18 18 19 20 20 19 19 18 18 18 17 16 15 13 12 10 9 8 7 5 4 4 3 3 2 2 2 2 2 3 3 3 3

GEFSSGP_500_meanwind_162.txt.gz
Wind_Speed
3 2 2 2 2 3 4 4 4 5 5 5 5 5 5 5 5 6 6 5 4 4 4 4 5 4 3 3 2 3 4 4 5 5 5 5 4 5 5 5 5 6 6 6 7 7 7 8 9
3 3 3 3 3 4 5 5 5 6 6 6 6 6 6 6 6 6 7 6 6 5 5 5 4 3 3 2 2 3 4 5 5 6 5 5 5 5 6 6 6 6 6 7 7 8 8 9 10
5 5 5 5 5 5 5 6 6 6 7 7 7 7 7 7 7 7 7 7 7 6 5 5 4 3 3 3 3 4 5 5 6 6 6 6 6 6 6 6 7 7 7 8 8 8 8 9 10
5 6 6 6 6 7 6 7 7 7 7 7 7 7 8 8 8 8 8 7 7 6 5 5 4 4 4 4 4 4 5 5 6 7 7 7 7 7 6 6 6 6 7 8 8 9 9 9 10
6 7 7 7 7 7 8 8 8 8 8 8 8 8 8 8 9 9 8 7 7 6 6 5 5 4 4 4 3 4 5 5 6 7 8 8 7 6 6 6 6 6 7 7 8 8 9 10 10
7 7 8 8 8 8 9 10 10 9 9 9 9 9 9 9 9 8 8 7 6 6 6 6 4 4 4 3 3 4 5 5 7 8 7 7 7 7 6 6 6 6 6 7 7 8 9 10 10
8 8 8 8 9 9 10 10 10 9 9 9 10 10 10 10 9 9 8 7 6 6 6 5 4 3 3 3 3 5 5 6 7 7 8 8 7 6 6 6 6 6 6 6 6 7 8 9 9
8 8 9 9 9 9 10 10 10 10 10 10 10 10 10 10 9 9 8 7 7 6 5 5 4 3 2 2 3 4 5 5 7 7 8 8 8 7 7 6 6 5 5 5 4 5 6 7 8
9 9 9 9 10 10 10 10 10 11 11 11 10 10 10 10 9 8 8 7 7 6 6 5 4 3 2 2 3 4 4 5 6 7 8 8 8 8 7 7 6 5 4 4 4 4 5 6 7
9 9 9 11 10 10 11 11 10 11 11 11 11 11 11 10 9 8 7 7 7 7 6 5 4 3 2 1 3 3 4 5 7 7 8 8 8 8 8 7 6 5 3 3 3 3 4 6 7
9 9 10 11 11 11 11 12 12 11 12 12 12 12 11 11 10 9 8 7 7 6 5 5 4 2 1 1 2 3 4 5 7 8 9 9 9 9 8 7 6 5 4 3 3 3 4 5 6
10 11 11 11 11 12 12 12 12 12 12 12 12 11 11 10 10 9 8 7 6 6 6 5 4 2 1 0 1 3 4 6 7 9 9 9 10 9 8 7 6 6 5 4 3 3 3 4 5
11 11 11 11 11 12 12 13 13 12 12 12 11 10 10 11 10 9 9 7 6 6 5 5 4 2 1 0 1 2 4 6 7 9 9 10 10 9 8 7 7 6 5 4 3 2 1 3 4
11 12 11 11 12 12 13 13 13 13 12 12 11 10 10 11 9 9 9 7 7 5 5 5 4 3 2 1 1 2 4 6 7 9 9 10 9 9 8 8 7 6 5 4 3 2 1 2 3
11 11 11 12 12 13 13 13 13 12 12 13 11 9 9 8 8 7 7 7 7 6 5 5 5 4 3 1 1 2 3 5 7 8 9 10 10 9 9 8 8 7 6 5 4 4 3 3 3
11 11 11 11 12 12 12 12 12 11 12 11 10 8 7 7 7 7 6 6 6 6 5 6 6 4 3 2 2 2 3 5 7 8 9 9 10 10 9 9 8 7 6 6 5 5 5 4 4
11 12 12 11 11 12 12 12 12 11 11 10 10 9 8 8 7 6 6 6 6 7 6 6 6 5 3 3 2 2 3 5 7 8 8 9 10 10 10 9 9 8 7 6 6 6 6 6 6
11 11 12 12 11 11 11 11 11 11 11 10 10 9 9 8 7 7 7 7 7 7 7 6 7 6 4 3 2 2 3 5 6 7 8 9 9 10 10 9 9 8 7 7 7 7 7 7 7
11 11 12 12 11 11 10 10 11 11 11 10 9 9 9 9 9 8 8 8 7 7 7 7 7 6 4 3 2 2 3 4 5 6 7 8 9 9 10 9 9 9 8 8 8 7 7 7 7
12 12 12 12 11 11 11 11 11 11 11 11 10 10 9 9 9 9 9 9 8 7 7 7 7 6 5 3 2 2 2 3 5 6 7 7 8 8 9 9 9 9 8 8 8 8 7 7 7
12 12 12 12 12 12 12 12 12 11 10 10 10 9 9 9 9 9 10 9 9 9 8 8 7 7 5 4 3 1 2 2 4 5 6 7 8 8 8 8 9 9 8 8 8 8 7 7 7
13 12 12 12 12 12 12 12 12 11 11 11 10 10 10 10 10 10 10 9 9 9 8 7 8 8 6 5 3 2 1 1 3 4 5 6 7 7 8 8 8 8 8 8 8 8 8 7 6
14 13 13 12 12 13 13 13 13 12 12 12 11 11 11 10 11 11 10 11 10 9 9 8 8 8 7 5 4 3 1 1 2 3 4 5 6 6 7 7 7 7 7 7 7 7 7 7 6
14 13 12 13 13 13 13 13 14 14 12 12 11 12 12 12 11 12 11 11 11 11 10 9 9 9 7 6 5 4 2 2 1 2 3 4 4 5 6 6 6 7 7 7 7 7 7 7 6
14 13 12 12 11 11 13 14 15 13 12 12 13 13 13 13 12 13 12 12 12 11 11 10 9 9 8 7 6 5 4 2 2 1 2 3 4 4 4 5 5 5 6 6 6 6 7 7 6
14 14 13 10 9 10 13 14 15 14 13 13 13 13 13 13 12 12 13 13 13 12 12 12 10 10 10 8 7 6 5 4 3 2 1 2 2 3 4 4 5 5 5 5 5 5 5 6 6
15 15 14 13 12 11 12 14 14 13 13 12 12 13 13 13 13 12 13 14 14 14 14 13 12 11 10 9 8 7 6 5 3 2 1 1 1 2 2 3 3 3 4 4 4 4 4 5 5
16 15 15 15 14 13 12 12 14 13 12 12 12 13 14 14 13 13 13 14 15 15 15 14 13 12 11 11 10 8 7 6 4 3 2 1 1 0 1 1 2 2 3 3 3 3 3 4 4
16 16 16 16 15 14 12 13 14 13 12 12 13 13 14 14 14 13 14 15 16 16 16 15 14 14 13 12 11 10 8 7 6 5 3 2 1 1 1 0 1 1 2 2 2 3 3 3 4
17 17 17 17 16 15 15 15 14 12 12 12 13 14 14 15 14 14 13 14 16 16 16 16 15 15 14 13 12 11 10 9 8 7 6 4 3 2 1 1 1 1 1 1 2 2 2 3 3

GEFSSGP_500_meanwind_168.txt.gz
Wind_Speed
0 0 1 1 2 2 3 3 2 0 1 2 2 2 2 2 3 3 3 3 3 3 3 3 3 3 3 2 3 3 4 4 4 4 5 6 6 7 7 8 8 8 8 7 7 8 9 9 9
1 1 1 2 3 3 4 3 2 2 2 3 4 4 4 4 3 3 4 4 4 3 3 4 3 3 2 2 3 3 4 4 5 5 6 6 6 7 7 8 9 9 8 8 8 9 10 10 10
4 3 3 3 4 4 4 3 3 3 3 4 5 5 5 5 4 4 5 4 3 3 3 4 3 2 2 2 3 4 4 5 5 6 5 5 6 6 7 8 8 9 9 9 9 9 10 10 10
5 5 5 5 5 4 5 4 3 4 4 5 5 6 5 5 5 5 5 5 4 4 4 4 3 3 3 3 4 4 4 4 5 5 5 5 6 6 7 7 7 7 8 9 9 10 10 10 10
5 5 6 6 5 5 5 5 5 6 6 6 5 5 5 5 5 5 5 5 5 5 5 4 4 3 3 3 4 4 4 5 5 5 5 5 6 6 7 7 7 7 8 9 9 9 10 10 10
5 6 7 6 6 6 5 5 6 6 7 7 6 7 6 6 6 5 5 5 5 5 5 4 3 3 3 3 4 4 4 4 4 4 5 5 6 6 6 7 7 7 7 8 9 9 9 10 10
6 6 6 6 7 6 6 6 6 6 7 7 7 7 7 6 6 6 5 5 6 5 4 3 3 3 3 3 3 3 3 3 4 4 4 5 6 6 6 6 6 6 6 6 7 8 8 9 10
7 7 7 7 7 7 7 7 7 7 8 8 8 7 7 7 6 6 5 5 6 5 3 3 3 2 2 3 2 2 3 4 4 4 5 5 6 6 6 5 5 5 5 5 5 6 6 7 8
8 8 8 7 7 7 6 7 7 8 8 8 7 7 7 6 5 5 5 5 5 4 3 3 3 3 2 2 1 2 3 4 4 4 5 6 6 6 5 4 4 4 4 4 4 5 5 6 7
8 8 8 8 8 7 7 7 8 8 9 8 7 7 6 6 5 5 5 4 4 4 4 4 3 2 2 1 1 1 2 3 4 4 5 6 6 6 5 4 4 3 3 4 4 4 5 6 7
8 8 8 8 8 7 7 8 8 9 9 9 8 7 6 5 5 5 5 5 5 4 4 3 3 3 2 1 1 1 2 3 4 5 5 6 6 6 5 5 4 3 3 2 3 4 4 5 6
9 9 9 8 8 8 8 9 8 9 9 9 8 8 7 6 5 5 4 4 4 4 4 4 4 4 3 1 0 0 2 3 4 5 6 6 6 6 6 6 5 4 3 1 0 2 4 4 5
9 9 9 9 10 10 9 9 8 8 8 8 8 9 7 7 6 5 4 4 4 4 4 4 4 4 3 2 1 0 2 3 4 5 6 6 6 6 6 6 5 5 3 2 1 1 2 3 5
9 9 10 10 9 9 9 8 8 7 8 8 8 8 7 6 5 5 5 4 4 4 4 4 3 3 3 2 2 1 2 3 4 4 5 6 6 7 7 7 7 6 5 4 3 2 3 3 4
10 10 10 9 9 9 9 8 8 8 7 7 7 6 5 5 5 5 5 4 4 3 4 4 3 3 3 3 3 2 1 2 3 4 5 6 6 7 7 7 7 6 6 5 3 3 3 4 4
11 10 10 11 10 10 9 8 8 7 7 6 6 5 4 4 5 5 5 5 4 4 4 4 4 4 4 4 3 3 2 3 4 5 6 6 7 7 7 8 7 7 6 6 5 5 5 5 5
11 11 10 9 9 9 9 8 7 6 6 6 5 5 5 5 5 5 5 5 5 4 4 5 5 5 4 4 3 3 3 3 4 5 6 7 8 8 8 8 7 7 7 6 6 5 5 6 6
11 11 10 9 8 8 8 7 7 7 6 6 5 5 6 6 6 5 5 5 5 4 4 5 6 5 5 5 4 3 3 3 4 5 6 7 7 8 8 8 8 8 7 7 7 7 6 6 6
12 11 10 9 8 7 7 7 7 7 6 5 5 5 5 6 7 6 6 6 5 5 4 5 7 6 6 5 4 4 3 3 4 5 6 7 7 8 9 9 9 8 8 8 8 8 7 7 6
12 11 10 10 10 8 8 7 7 6 6 6 6 6 6 6 7 7 7 6 6 6 5 6 7 7 6 6 5 4 3 3 4 5 6 7 7 8 8 8 8 8 8 8 8 8 7 7 7
12 11 10 10 9 9 9 8 8 6 6 6 6 6 7 7 7 7 7 7 7 7 6 6 7 7 6 6 5 4 3 3 3 4 5 6 6 7 7 8 8 8 8 8 8 8 8 7 7
12 12 12 10 10 10 10 9 8 7 7 6 6 6 7 7 7 7 8 7 7 8 8 6 7 7 7 6 6 5 4 3 3 3 5 6 6 7 7 8 8 8 8 8 8 8 7 7 6
12 13 13 12 11 10 10 9 8 8 7 6 7 7 8 8 8 8 8 7 8 9 9 8 8 8 7 7 7 6 4 3 3 3 4 5 6 7 7 7 7 7 7 7 7 8 7 7 6
13 13 13 13 11 10 10 10 7 7 6 7 7 7 8 9 9 9 9 8 8 9 10 9 8 8 8 7 7 6 5 3 3 3 3 4 5 6 6 6 7 7 7 7 7 7 7 6 5
13 13 13 13 12 11 10 10 7 7 7 7 7 7 9 10 10 10 9 9 9 10 10 10 9 9 9 8 8 7 5 4 3 3 3 4 5 5 6 6 6 7 7 7 7 7 6 6 5
13 13 13 13 12 11 11 9 8 8 7 7 7 7 9 11 11 10 9 9 10 11 10 10 10 10 10 8 10 8 6 5 4 3 3 4 4 4 5 5 6 6 6 5 5 5 5 5 4
14 14 14 14 13 13 12 10 8 8 8 8 7 8 9 11 12 11 10 10 11 12 11 11 11 11 10 9 9 9 8 6 5 4 4 3 4 4 4 4 5 5 5 5 4 4 3 3 4
15 15 15 15 14 13 12 11 9 8 8 7 7 8 9 10 12 11 11 11 12 12 12 12 11 11 11 11 10 10 9 7 5 4 4 4 3 3 3 3 3 3 4 4 3 3 2 2 3
16 16 16 15 15 14 13 11 10 9 7 7 7 8 8 9 10 11 11 12 12 13 13 13 13 12 12 11 11 10 10 9 7 6 5 5 4 4 3 3 2 2 2 2 2 2 2 2 2
18 17 16 16 16 15 14 12 11 9 9 8 8 8 9 10 10 11 12 12 12 13 14 13 14 14 13 13 12 12 10 10 9 8 7 6 6 5 5 4 3 2 1 1 0 0 1 1 1